GEFSSE_prec_meanprecacc_150.txt.gz
Total_Precipitation_Accumulation
0.18 0.16 0.28 0.29 0.23 0.20 0.19 0.22 0.24 0.22 0.20 0.15 0.14 0.11 0.07 0.06 0.06 0.07 0.07 0.07 0.09 0.14 0.20 0.23 0.25 0.28 0.33 0.35 0.39 0.35 0.33 0.36 0.50 0.65 0.68 0.71 0.79 0.91 1.11 1.27 1.25 0.87 0.74
0.06 0.09 0.25 0.28 0.23 0.21 0.18 0.21 0.21 0.21 0.19 0.16 0.14 0.12 0.09 0.08 0.08 0.08 0.08 0.10 0.11 0.14 0.19 0.24 0.25 0.27 0.28 0.29 0.29 0.29 0.33 0.46 0.69 0.94 1.03 0.95 1.06 1.07 1.07 1.08 1.18 0.81 0.74
0.04 0.05 0.15 0.28 0.25 0.21 0.19 0.18 0.19 0.19 0.18 0.17 0.14 0.11 0.10 0.10 0.10 0.10 0.11 0.12 0.14 0.16 0.19 0.23 0.23 0.22 0.24 0.28 0.27 0.30 0.40 0.62 0.91 1.26 1.55 1.13 0.82 1.06 0.99 1.00 0.97 0.67 0.61
0.05 0.03 0.06 0.19 0.24 0.22 0.20 0.20 0.20 0.20 0.18 0.16 0.14 0.12 0.11 0.11 0.11 0.12 0.13 0.14 0.17 0.19 0.20 0.23 0.21 0.22 0.25 0.29 0.33 0.41 0.54 0.75 1.08 1.44 1.68 1.02 0.53 0.70 0.79 0.71 0.70 0.59 0.54
0.09 0.07 0.10 0.17 0.19 0.21 0.21 0.22 0.21 0.19 0.18 0.16 0.15 0.13 0.14 0.13 0.16 0.16 0.16 0.18 0.21 0.23 0.24 0.25 0.21 0.24 0.22 0.23 0.30 0.43 0.62 0.79 1.03 1.29 1.09 1.05 0.97 0.72 0.61 0.56 0.60 0.58 0.47
0.12 0.11 0.14 0.19 0.20 0.21 0.22 0.22 0.22 0.19 0.17 0.16 0.15 0.15 0.17 0.20 0.22 0.19 0.19 0.23 0.23 0.24 0.27 0.29 0.23 0.22 0.22 0.24 0.31 0.42 0.56 0.75 0.94 0.76 0.60 0.79 0.85 0.68 0.60 0.63 0.56 0.51 0.42
0.32 0.29 0.27 0.29 0.26 0.25 0.24 0.24 0.24 0.22 0.20 0.18 0.16 0.18 0.21 0.22 0.25 0.26 0.26 0.28 0.25 0.26 0.30 0.34 0.29 0.25 0.31 0.37 0.40 0.45 0.58 0.78 0.79 0.62 0.61 0.76 0.76 0.63 0.79 0.92 0.79 0.59 0.46
0.69 0.62 0.54 0.50 0.41 0.34 0.30 0.30 0.30 0.28 0.24 0.23 0.22 0.22 0.23 0.25 0.26 0.29 0.31 0.33 0.31 0.33 0.35 0.34 0.30 0.31 0.38 0.43 0.44 0.47 0.61 0.69 0.58 0.63 0.66 0.67 0.54 0.55 0.84 1.05 0.96 0.86 0.69
0.98 0.92 0.71 0.57 0.51 0.45 0.45 0.41 0.37 0.34 0.32 0.31 0.30 0.26 0.26 0.26 0.26 0.28 0.35 0.38 0.36 0.37 0.39 0.39 0.37 0.40 0.43 0.45 0.46 0.51 0.64 0.72 0.65 0.75 0.73 0.68 0.50 0.60 0.80 0.94 0.96 0.94 0.83
1.28 1.12 0.84 0.68 0.68 0.56 0.51 0.49 0.44 0.39 0.36 0.36 0.35 0.35 0.35 0.35 0.34 0.38 0.42 0.45 0.43 0.41 0.41 0.44 0.47 0.49 0.51 0.50 0.51 0.59 0.71 0.69 0.60 0.73 0.91 0.71 0.60 0.78 0.95 0.95 1.03 1.05 0.94
1.67 1.26 0.89 0.85 0.95 0.82 0.62 0.56 0.62 0.56 0.54 0.55 0.59 0.58 0.66 0.80 0.77 0.80 0.67 0.66 0.65 0.68 0.69 0.72 0.74 0.77 0.75 0.61 0.66 0.82 0.79 0.73 0.92 1.06 1.20 0.80 0.74 0.95 1.13 1.16 1.13 1.09 1.05
1.63 1.58 1.21 1.01 0.99 0.92 0.77 0.75 1.02 1.03 1.03 1.09 1.19 1.13 1.26 1.28 1.13 0.87 0.86 1.02 1.02 1.15 1.26 1.42 1.53 1.33 1.08 0.93 1.12 1.49 1.04 0.89 1.07 1.14 1.17 0.96 1.00 1.27 1.41 1.38 1.22 1.03 1.00
1.61 1.53 1.51 1.27 1.12 1.08 1.14 1.07 1.19 1.32 1.42 1.52 1.47 1.50 1.66 1.42 1.19 1.06 1.19 1.45 1.48 1.59 1.70 1.96 2.09 1.58 1.59 1.85 1.91 1.84 1.54 1.44 1.38 1.50 1.46 1.44 1.50 1.73 1.74 1.67 1.53 1.29 1.13
1.78 1.71 1.94 1.80 1.63 1.56 1.47 1.46 1.30 1.24 1.31 1.43 1.50 1.51 1.65 1.59 1.46 1.47 1.53 1.57 1.75 1.92 2.16 2.11 2.24 2.25 2.36 2.26 2.26 2.23 2.10 1.93 1.82 1.96 2.25 2.17 2.06 2.07 2.17 1.99 1.74 1.63 1.49
2.19 2.22 2.40 2.38 2.41 2.26 1.96 1.75 1.42 1.33 1.27 1.28 1.36 1.39 1.60 1.82 1.80 1.87 1.67 1.65 1.47 1.73 2.10 2.32 2.36 2.60 2.73 2.68 2.35 2.14 2.10 2.00 1.84 1.85 2.10 2.34 2.38 2.24 2.30 2.29 2.02 1.87 1.82
2.78 2.93 2.93 2.94 2.88 2.71 2.24 1.95 1.73 1.46 1.43 1.35 1.38 1.48 1.91 2.08 1.96 2.01 1.92 1.81 1.58 1.70 2.02 2.35 2.43 2.70 2.70 2.76 2.32 2.06 1.98 2.00 1.79 1.69 1.75 2.11 2.16 2.04 2.06 2.23 2.29 2.20 2.10
3.44 3.60 3.73 3.66 3.31 3.18 2.77 2.21 1.87 1.59 1.39 1.44 1.58 1.72 2.00 2.15 2.22 2.34 2.25 1.90 1.73 1.88 2.05 2.06 2.20 2.66 2.52 2.52 2.39 2.35 2.30 2.09 1.84 1.72 1.67 1.75 1.73 1.89 1.97 2.03 2.22 2.35 2.41
4.01 4.38 4.51 4.27 4.04 3.81 3.31 2.79 2.41 2.16 1.94 1.91 1.90 1.80 1.72 1.91 2.04 2.15 1.89 1.54 1.68 1.92 2.07 2.00 2.01 2.37 2.44 2.49 2.51 2.44 2.31 2.10 1.81 1.69 1.64 1.54 1.53 1.39 1.63 1.87 2.06 2.21 2.49
4.31 4.97 5.29 5.43 4.86 4.21 3.52 3.01 2.61 2.48 2.31 2.10 1.87 1.66 1.46 1.34 1.32 1.41 1.28 1.20 1.35 1.60 1.64 1.46 1.59 1.87 2.02 2.17 2.09 1.91 1.72 1.52 1.36 1.31 1.29 1.20 1.32 1.35 1.42 1.50 1.81 1.95 2.30
4.48 5.13 5.48 5.59 4.91 4.03 3.51 3.27 2.93 2.62 2.34 2.04 1.70 1.44 1.19 1.10 0.99 1.05 1.05 0.97 1.01 1.05 1.11 1.25 1.44 1.58 1.53 1.63 1.54 1.39 1.32 1.16 1.05 1.01 0.89 0.90 1.00 0.97 1.02 1.21 1.45 1.37 1.77
4.88 5.43 5.48 5.10 4.21 3.53 2.99 2.73 2.46 2.21 1.98 1.69 1.37 1.15 1.03 0.99 0.89 0.90 0.86 0.84 0.85 0.82 0.83 0.98 1.10 1.14 1.01 1.18 1.35 1.21 1.00 0.84 0.79 0.77 0.72 0.74 0.73 0.77 0.93 1.15 1.27 1.25 1.19
4.45 4.70 4.62 4.09 3.26 2.74 2.38 2.29 2.09 1.86 1.50 1.33 1.16 1.03 0.90 0.84 0.78 0.75 0.77 0.71 0.67 0.72 0.72 0.75 0.87 0.90 0.82 0.93 1.08 1.09 0.90 0.81 0.68 0.48 0.52 0.55 0.55 0.69 0.79 0.92 1.10 1.29 1.26
3.80 3.51 3.13 2.81 2.41 2.25 2.18 2.00 1.78 1.67 1.39 1.14 0.91 0.81 0.73 0.64 0.57 0.55 0.53 0.52 0.54 0.55 0.58 0.64 0.72 0.79 0.74 0.69 0.77 0.90 0.78 0.68 0.60 0.49 0.43 0.46 0.54 0.62 0.66 0.81 0.93 1.12 1.29
2.87 2.50 2.23 2.12 2.03 1.92 1.83 1.69 1.38 1.15 1.08 0.93 0.81 0.74 0.67 0.55 0.49 0.46 0.43 0.41 0.41 0.40 0.48 0.47 0.57 0.69 0.71 0.61 0.60 0.63 0.63 0.61 0.59 0.57 0.51 0.44 0.49 0.53 0.60 0.67 0.82 1.02 1.15
1.76 1.82 1.85 1.90 1.91 1.81 1.72 1.60 1.41 1.14 1.06 1.01 0.97 0.92 0.81 0.67 0.56 0.48 0.46 0.42 0.40 0.35 0.38 0.42 0.51 0.61 0.68 0.62 0.55 0.58 0.66 0.65 0.56 0.56 0.55 0.53 0.56 0.45 0.52 0.67 0.79 0.88 0.98
1.17 1.26 1.38 1.44 1.55 1.63 1.57 1.39 1.28 1.14 1.08 1.05 0.95 0.82 0.70 0.63 0.59 0.51 0.50 0.52 0.47 0.43 0.40 0.40 0.45 0.49 0.60 0.68 0.65 0.60 0.63 0.65 0.55 0.51 0.45 0.44 0.52 0.46 0.59 0.77 0.82 0.89 0.96

GEFSSE_prec_meanprecacc_156.txt.gz
Total_Precipitation_Accumulation
0.18 0.18 0.30 0.31 0.25 0.22 0.22 0.26 0.27 0.24 0.21 0.17 0.15 0.13 0.09 0.07 0.07 0.08 0.08 0.09 0.11 0.16 0.23 0.28 0.29 0.33 0.38 0.41 0.44 0.40 0.40 0.41 0.59 0.75 0.75 0.77 0.86 0.98 1.19 1.35 1.31 0.92 0.78
0.06 0.10 0.27 0.30 0.24 0.23 0.21 0.23 0.24 0.23 0.20 0.18 0.15 0.13 0.11 0.09 0.09 0.10 0.10 0.12 0.13 0.17 0.23 0.28 0.29 0.31 0.32 0.34 0.35 0.36 0.41 0.55 0.78 1.04 1.10 1.02 1.14 1.15 1.16 1.13 1.22 0.86 0.79
0.04 0.05 0.17 0.30 0.26 0.22 0.21 0.20 0.21 0.21 0.19 0.18 0.15 0.13 0.11 0.11 0.10 0.12 0.13 0.15 0.17 0.20 0.23 0.26 0.27 0.25 0.26 0.33 0.31 0.36 0.49 0.71 1.00 1.36 1.63 1.22 0.87 1.12 1.06 1.06 1.01 0.72 0.68
0.05 0.03 0.07 0.21 0.25 0.23 0.21 0.21 0.22 0.21 0.18 0.17 0.15 0.12 0.12 0.12 0.12 0.14 0.16 0.18 0.21 0.23 0.22 0.25 0.23 0.25 0.29 0.34 0.38 0.47 0.62 0.82 1.13 1.50 1.75 1.09 0.59 0.76 0.87 0.78 0.77 0.68 0.66
0.10 0.07 0.11 0.19 0.21 0.22 0.23 0.23 0.22 0.20 0.18 0.17 0.15 0.13 0.14 0.15 0.18 0.19 0.20 0.22 0.25 0.25 0.26 0.27 0.24 0.27 0.26 0.29 0.35 0.47 0.67 0.82 1.07 1.32 1.13 1.13 1.06 0.80 0.67 0.62 0.68 0.71 0.58
0.13 0.12 0.15 0.21 0.22 0.23 0.24 0.24 0.22 0.20 0.18 0.16 0.16 0.16 0.18 0.21 0.25 0.24 0.26 0.27 0.25 0.26 0.31 0.34 0.28 0.28 0.29 0.29 0.35 0.46 0.59 0.77 0.96 0.78 0.64 0.88 0.92 0.75 0.66 0.69 0.64 0.59 0.50
0.33 0.31 0.29 0.30 0.28 0.27 0.26 0.27 0.25 0.23 0.21 0.18 0.17 0.19 0.22 0.24 0.29 0.31 0.32 0.32 0.28 0.28 0.33 0.38 0.33 0.31 0.38 0.44 0.45 0.49 0.61 0.81 0.81 0.64 0.65 0.83 0.82 0.69 0.85 0.97 0.84 0.66 0.53
0.72 0.64 0.57 0.54 0.44 0.38 0.33 0.32 0.32 0.30 0.26 0.25 0.23 0.23 0.24 0.27 0.29 0.34 0.35 0.36 0.34 0.34 0.38 0.39 0.34 0.37 0.44 0.50 0.50 0.51 0.65 0.71 0.59 0.64 0.69 0.72 0.59 0.61 0.88 1.08 1.00 0.90 0.73
1.00 0.95 0.75 0.63 0.57 0.49 0.50 0.44 0.39 0.37 0.35 0.34 0.33 0.29 0.29 0.28 0.29 0.32 0.39 0.41 0.37 0.39 0.42 0.44 0.42 0.47 0.50 0.51 0.51 0.55 0.66 0.73 0.66 0.76 0.74 0.71 0.53 0.64 0.82 0.96 0.99 0.97 0.85
1.30 1.15 0.88 0.74 0.76 0.62 0.56 0.54 0.49 0.41 0.39 0.39 0.39 0.38 0.38 0.37 0.37 0.41 0.45 0.48 0.45 0.43 0.45 0.51 0.53 0.54 0.55 0.55 0.56 0.63 0.73 0.70 0.61 0.73 0.92 0.73 0.63 0.82 0.99 0.99 1.07 1.09 0.97
1.69 1.28 0.91 0.88 0.98 0.84 0.66 0.62 0.69 0.61 0.58 0.58 0.63 0.61 0.70 0.87 0.81 0.83 0.70 0.69 0.67 0.70 0.73 0.79 0.80 0.81 0.78 0.67 0.73 0.86 0.82 0.75 0.92 1.06 1.21 0.81 0.77 0.99 1.17 1.20 1.17 1.12 1.08
1.65 1.60 1.24 1.04 1.01 0.94 0.81 0.83 1.11 1.09 1.08 1.14 1.23 1.17 1.32 1.34 1.18 0.90 0.90 1.07 1.05 1.18 1.30 1.47 1.57 1.36 1.11 0.96 1.15 1.52 1.07 0.91 1.08 1.15 1.18 0.97 1.03 1.30 1.44 1.41 1.26 1.07 1.04
1.62 1.54 1.53 1.29 1.14 1.10 1.18 1.13 1.25 1.39 1.49 1.58 1.52 1.55 1.71 1.46 1.23 1.09 1.23 1.50 1.53 1.63 1.73 1.98 2.10 1.59 1.60 1.89 1.96 1.87 1.57 1.45 1.38 1.51 1.47 1.45 1.53 1.76 1.77 1.71 1.57 1.33 1.18
1.79 1.72 1.96 1.83 1.67 1.61 1.53 1.52 1.36 1.30 1.37 1.48 1.56 1.56 1.69 1.63 1.50 1.52 1.58 1.61 1.79 1.97 2.21 2.13 2.26 2.28 2.39 2.30 2.28 2.26 2.12 1.94 1.83 1.97 2.27 2.18 2.08 2.11 2.20 2.03 1.78 1.66 1.54
2.20 2.24 2.43 2.42 2.47 2.32 2.02 1.81 1.47 1.39 1.32 1.33 1.41 1.44 1.65 1.86 1.84 1.92 1.72 1.69 1.50 1.76 2.13 2.36 2.40 2.63 2.78 2.72 2.38 2.16 2.12 2.02 1.85 1.86 2.12 2.36 2.40 2.27 2.33 2.31 2.05 1.90 1.86
2.80 2.96 2.97 3.00 2.97 2.78 2.30 2.00 1.79 1.53 1.49 1.39 1.43 1.53 1.96 2.13 2.02 2.05 1.96 1.86 1.63 1.74 2.06 2.41 2.48 2.74 2.74 2.80 2.35 2.08 2.01 2.02 1.81 1.70 1.77 2.14 2.18 2.06 2.08 2.26 2.31 2.23 2.13
3.49 3.66 3.79 3.71 3.39 3.26 2.84 2.25 1.92 1.65 1.45 1.49 1.64 1.76 2.05 2.20 2.28 2.39 2.29 1.95 1.79 1.93 2.11 2.14 2.26 2.69 2.55 2.55 2.42 2.37 2.32 2.11 1.86 1.74 1.69 1.78 1.76 1.91 1.99 2.06 2.25 2.38 2.44
4.06 4.43 4.58 4.34 4.12 3.89 3.39 2.84 2.46 2.20 1.98 1.95 1.97 1.86 1.76 1.96 2.09 2.19 1.93 1.59 1.74 1.98 2.13 2.07 2.06 2.42 2.49 2.53 2.57 2.49 2.35 2.14 1.84 1.72 1.66 1.56 1.56 1.43 1.67 1.90 2.09 2.24 2.52
4.36 5.03 5.38 5.52 4.95 4.30 3.59 3.06 2.66 2.53 2.36 2.16 1.94 1.72 1.50 1.39 1.37 1.46 1.33 1.26 1.42 1.68 1.72 1.52 1.65 1.93 2.07 2.23 2.15 1.96 1.76 1.56 1.42 1.34 1.31 1.21 1.34 1.38 1.46 1.54 1.83 1.97 2.32
4.54 5.22 5.59 5.69 5.04 4.16 3.59 3.33 3.00 2.67 2.40 2.11 1.78 1.53 1.25 1.17 1.06 1.13 1.12 1.03 1.08 1.14 1.19 1.34 1.54 1.65 1.58 1.68 1.58 1.44 1.38 1.19 1.09 1.05 0.91 0.92 1.02 0.99 1.05 1.26 1.51 1.40 1.79
4.97 5.57 5.64 5.24 4.38 3.69 3.07 2.79 2.51 2.26 2.04 1.75 1.43 1.20 1.09 1.06 0.97 1.02 0.95 0.95 0.95 0.90 0.92 1.04 1.17 1.22 1.06 1.23 1.43 1.30 1.06 0.86 0.83 0.81 0.75 0.77 0.76 0.79 0.95 1.20 1.34 1.31 1.25
4.57 4.86 4.82 4.32 3.48 2.92 2.49 2.37 2.16 1.92 1.56 1.41 1.23 1.09 0.96 0.91 0.85 0.83 0.88 0.80 0.76 0.82 0.82 0.85 0.97 0.98 0.87 0.97 1.14 1.17 0.97 0.87 0.73 0.49 0.56 0.59 0.57 0.72 0.82 0.95 1.15 1.37 1.33
4.01 3.76 3.36 3.03 2.61 2.43 2.31 2.09 1.88 1.77 1.48 1.23 0.99 0.88 0.80 0.73 0.66 0.63 0.62 0.59 0.62 0.63 0.67 0.74 0.82 0.89 0.84 0.76 0.83 0.97 0.85 0.75 0.66 0.52 0.44 0.47 0.56 0.65 0.68 0.84 0.95 1.17 1.34
3.07 2.70 2.40 2.27 2.17 2.04 1.94 1.78 1.46 1.24 1.16 1.01 0.90 0.84 0.76 0.65 0.58 0.55 0.51 0.50 0.48 0.45 0.56 0.54 0.63 0.78 0.82 0.69 0.67 0.69 0.68 0.67 0.68 0.62 0.54 0.45 0.51 0.55 0.61 0.69 0.84 1.04 1.19
1.90 1.93 1.93 1.97 2.02 1.89 1.80 1.70 1.51 1.22 1.15 1.11 1.07 1.03 0.92 0.77 0.66 0.56 0.52 0.49 0.47 0.41 0.45 0.48 0.57 0.68 0.75 0.69 0.62 0.64 0.72 0.71 0.62 0.62 0.62 0.58 0.58 0.46 0.53 0.68 0.81 0.91 1.01
1.25 1.33 1.45 1.51 1.62 1.70 1.64 1.47 1.36 1.22 1.18 1.17 1.08 0.91 0.79 0.73 0.68 0.60 0.57 0.60 0.54 0.49 0.47 0.47 0.52 0.56 0.69 0.77 0.74 0.67 0.69 0.71 0.59 0.56 0.51 0.51 0.56 0.48 0.60 0.79 0.84 0.90 0.97

GEFSSE_prec_meanprecacc_162.txt.gz
Total_Precipitation_Accumulation
0.19 0.18 0.32 0.34 0.27 0.25 0.25 0.29 0.30 0.28 0.25 0.20 0.18 0.15 0.11 0.08 0.08 0.10 0.10 0.11 0.13 0.18 0.26 0.33 0.34 0.36 0.41 0.44 0.46 0.43 0.43 0.45 0.63 0.80 0.81 0.84 0.94 1.06 1.26 1.42 1.38 0.96 0.84
0.06 0.10 0.28 0.32 0.27 0.25 0.23 0.26 0.27 0.26 0.24 0.21 0.18 0.16 0.12 0.10 0.10 0.12 0.13 0.15 0.16 0.20 0.26 0.32 0.33 0.34 0.35 0.36 0.38 0.40 0.45 0.59 0.82 1.12 1.21 1.13 1.22 1.22 1.24 1.22 1.30 0.91 0.86
0.04 0.05 0.17 0.31 0.28 0.24 0.23 0.23 0.25 0.25 0.22 0.21 0.18 0.14 0.13 0.12 0.13 0.15 0.17 0.18 0.20 0.24 0.28 0.31 0.32 0.29 0.30 0.36 0.35 0.40 0.53 0.76 1.07 1.48 1.78 1.32 0.93 1.18 1.14 1.12 1.06 0.76 0.73
0.05 0.03 0.07 0.21 0.26 0.24 0.23 0.24 0.25 0.24 0.21 0.20 0.17 0.14 0.14 0.15 0.15 0.19 0.20 0.21 0.24 0.28 0.29 0.30 0.26 0.29 0.34 0.38 0.42 0.50 0.66 0.88 1.23 1.66 1.87 1.14 0.63 0.82 0.94 0.85 0.84 0.75 0.73
0.10 0.07 0.11 0.19 0.21 0.23 0.24 0.25 0.25 0.23 0.22 0.20 0.18 0.16 0.17 0.18 0.21 0.25 0.26 0.26 0.28 0.29 0.30 0.30 0.27 0.31 0.30 0.33 0.39 0.51 0.72 0.89 1.18 1.47 1.21 1.19 1.11 0.84 0.72 0.67 0.75 0.87 0.72
0.13 0.12 0.15 0.22 0.22 0.24 0.25 0.26 0.25 0.23 0.21 0.19 0.18 0.19 0.21 0.24 0.29 0.29 0.32 0.32 0.29 0.29 0.34 0.37 0.32 0.32 0.32 0.33 0.39 0.49 0.63 0.86 1.08 0.85 0.70 0.93 0.96 0.80 0.72 0.74 0.70 0.72 0.61
0.34 0.31 0.29 0.31 0.28 0.27 0.27 0.28 0.27 0.25 0.23 0.21 0.19 0.21 0.24 0.27 0.32 0.35 0.36 0.36 0.32 0.32 0.37 0.41 0.36 0.34 0.41 0.46 0.47 0.51 0.65 0.90 0.89 0.68 0.71 0.90 0.85 0.73 0.89 1.02 0.89 0.74 0.59
0.72 0.65 0.58 0.55 0.45 0.39 0.34 0.33 0.33 0.32 0.28 0.27 0.26 0.25 0.26 0.29 0.32 0.38 0.39 0.40 0.37 0.38 0.42 0.42 0.38 0.41 0.47 0.51 0.50 0.52 0.67 0.75 0.62 0.66 0.73 0.77 0.62 0.64 0.91 1.11 1.04 0.96 0.78
1.01 0.96 0.76 0.64 0.57 0.50 0.51 0.46 0.41 0.39 0.37 0.36 0.36 0.32 0.31 0.31 0.32 0.35 0.42 0.44 0.41 0.42 0.46 0.47 0.45 0.49 0.51 0.52 0.52 0.56 0.67 0.75 0.68 0.78 0.76 0.74 0.55 0.66 0.85 0.99 1.04 1.02 0.89
1.33 1.16 0.89 0.75 0.78 0.64 0.58 0.55 0.51 0.44 0.41 0.41 0.41 0.41 0.41 0.40 0.40 0.44 0.48 0.51 0.47 0.46 0.49 0.55 0.56 0.55 0.56 0.56 0.57 0.63 0.73 0.71 0.62 0.74 0.93 0.74 0.64 0.84 1.01 1.02 1.10 1.13 1.00
1.73 1.31 0.94 0.89 1.01 0.88 0.68 0.62 0.71 0.64 0.60 0.61 0.65 0.64 0.77 0.99 0.87 0.89 0.73 0.71 0.69 0.72 0.75 0.82 0.82 0.83 0.79 0.67 0.73 0.87 0.82 0.76 0.93 1.07 1.22 0.82 0.78 1.00 1.19 1.23 1.21 1.16 1.10
1.68 1.63 1.28 1.07 1.03 0.97 0.83 0.86 1.17 1.15 1.13 1.23 1.29 1.24 1.48 1.48 1.30 0.95 0.92 1.09 1.07 1.20 1.32 1.50 1.60 1.39 1.14 0.98 1.17 1.54 1.08 0.92 1.09 1.15 1.18 0.98 1.04 1.32 1.46 1.45 1.29 1.11 1.06
1.64 1.57 1.57 1.33 1.17 1.14 1.24 1.19 1.33 1.49 1.59 1.70 1.63 1.66 1.85 1.57 1.30 1.14 1.27 1.53 1.55 1.66 1.78 2.01 2.15 1.65 1.66 1.93 2.00 1.89 1.59 1.48 1.40 1.52 1.48 1.46 1.53 1.77 1.78 1.74 1.60 1.37 1.21
1.82 1.75 2.00 1.87 1.71 1.68 1.59 1.58 1.44 1.37 1.44 1.57 1.65 1.65 1.80 1.75 1.60 1.60 1.69 1.71 1.88 2.06 2.30 2.20 2.34 2.35 2.43 2.31 2.30 2.28 2.15 1.98 1.85 1.99 2.28 2.19 2.09 2.11 2.20 2.04 1.80 1.69 1.58
2.24 2.29 2.49 2.47 2.52 2.39 2.11 1.87 1.51 1.44 1.38 1.40 1.49 1.52 1.73 1.93 1.93 2.02 1.83 1.81 1.59 1.82 2.20 2.44 2.48 2.69 2.83 2.75 2.40 2.18 2.17 2.09 1.87 1.88 2.14 2.37 2.40 2.28 2.33 2.31 2.05 1.91 1.87
2.86 3.04 3.06 3.06 3.03 2.85 2.37 2.07 1.83 1.56 1.54 1.45 1.47 1.57 2.00 2.19 2.10 2.14 2.05 1.94 1.69 1.79 2.13 2.48 2.56 2.81 2.80 2.86 2.39 2.10 2.03 2.04 1.83 1.72 1.80 2.16 2.18 2.07 2.09 2.26 2.31 2.23 2.14
3.56 3.75 3.87 3.79 3.46 3.33 2.91 2.29 1.94 1.68 1.49 1.53 1.68 1.80 2.08 2.24 2.34 2.45 2.36 2.00 1.84 1.98 2.16 2.19 2.33 2.75 2.61 2.61 2.48 2.41 2.35 2.13 1.88 1.76 1.71 1.82 1.78 1.92 2.00 2.07 2.26 2.39 2.45
4.12 4.53 4.69 4.42 4.19 3.98 3.51 2.93 2.50 2.22 2.01 1.99 2.00 1.90 1.78 1.99 2.11 2.24 1.98 1.63 1.78 2.03 2.18 2.13 2.11 2.48 2.55 2.59 2.63 2.54 2.39 2.17 1.85 1.73 1.67 1.59 1.60 1.46 1.68 1.90 2.09 2.25 2.54
4.42 5.14 5.50 5.65 5.04 4.42 3.74 3.21 2.77 2.59 2.41 2.20 1.98 1.78 1.55 1.41 1.38 1.49 1.39 1.32 1.45 1.72 1.78 1.57 1.72 2.00 2.14 2.30 2.20 2.01 1.79 1.59 1.44 1.35 1.32 1.22 1.36 1.42 1.49 1.56 1.84 1.99 2.36
4.61 5.32 5.69 5.79 5.14 4.31 3.79 3.51 3.14 2.77 2.46 2.16 1.83 1.59 1.30 1.20 1.08 1.16 1.16 1.06 1.11 1.19 1.25 1.41 1.63 1.73 1.67 1.75 1.62 1.52 1.41 1.21 1.12 1.07 0.93 0.93 1.03 1.01 1.08 1.31 1.57 1.43 1.82
5.06 5.67 5.73 5.32 4.49 3.85 3.30 2.99 2.67 2.37 2.12 1.81 1.47 1.24 1.11 1.08 1.00 1.07 1.01 1.01 0.99 0.96 0.98 1.10 1.25 1.31 1.15 1.29 1.52 1.43 1.15 0.90 0.86 0.83 0.76 0.78 0.79 0.83 0.98 1.27 1.44 1.42 1.32
4.68 4.98 4.93 4.40 3.58 3.06 2.68 2.56 2.33 2.07 1.67 1.49 1.30 1.17 1.00 0.94 0.89 0.88 0.94 0.84 0.82 0.90 0.88 0.91 1.04 1.07 0.95 1.04 1.22 1.30 1.11 1.01 0.82 0.52 0.58 0.60 0.59 0.74 0.84 0.98 1.20 1.45 1.41
4.08 3.84 3.48 3.17 2.76 2.61 2.50 2.27 2.04 1.92 1.61 1.36 1.11 0.98 0.87 0.78 0.70 0.68 0.68 0.65 0.68 0.68 0.74 0.81 0.88 0.98 0.94 0.85 0.89 1.04 0.96 0.91 0.82 0.59 0.47 0.48 0.57 0.68 0.70 0.86 0.98 1.23 1.40
3.11 2.76 2.52 2.43 2.35 2.23 2.12 1.98 1.64 1.36 1.27 1.14 1.01 0.94 0.85 0.73 0.65 0.61 0.57 0.56 0.55 0.51 0.65 0.59 0.69 0.85 0.91 0.78 0.74 0.73 0.73 0.77 0.82 0.78 0.63 0.49 0.55 0.58 0.65 0.74 0.89 1.12 1.26
1.95 1.99 2.02 2.10 2.16 2.03 1.95 1.88 1.70 1.37 1.29 1.26 1.21 1.18 1.04 0.87 0.75 0.62 0.60 0.58 0.56 0.48 0.53 0.56 0.68 0.76 0.82 0.76 0.71 0.71 0.79 0.79 0.69 0.72 0.73 0.68 0.66 0.53 0.60 0.74 0.86 0.98 1.07
1.28 1.37 1.52 1.60 1.71 1.80 1.75 1.59 1.50 1.36 1.35 1.36 1.25 1.07 0.91 0.86 0.80 0.68 0.65 0.71 0.64 0.60 0.59 0.58 0.63 0.66 0.79 0.86 0.82 0.74 0.77 0.79 0.67 0.65 0.60 0.59 0.66 0.58 0.68 0.85 0.91 0.97 1.03

GEFSSE_prec_meanprecacc_168.txt.gz
Total_Precipitation_Accumulation
0.21 0.21 0.36 0.36 0.28 0.26 0.26 0.30 0.32 0.29 0.28 0.23 0.20 0.16 0.12 0.09 0.09 0.11 0.12 0.13 0.15 0.20 0.29 0.37 0.39 0.40 0.44 0.47 0.50 0.48 0.46 0.49 0.69 0.87 0.89 0.93 1.03 1.13 1.33 1.47 1.41 0.98 0.90
0.07 0.11 0.31 0.34 0.27 0.26 0.24 0.27 0.29 0.29 0.28 0.23 0.20 0.17 0.14 0.11 0.11 0.13 0.14 0.17 0.18 0.23 0.29 0.35 0.37 0.37 0.38 0.40 0.43 0.46 0.50 0.65 0.89 1.18 1.29 1.19 1.29 1.28 1.29 1.25 1.33 0.94 0.92
0.05 0.05 0.18 0.33 0.29 0.25 0.24 0.24 0.27 0.27 0.25 0.22 0.19 0.16 0.14 0.14 0.15 0.17 0.19 0.20 0.23 0.27 0.31 0.33 0.35 0.32 0.32 0.39 0.39 0.45 0.59 0.83 1.14 1.54 1.84 1.35 0.97 1.24 1.18 1.15 1.09 0.80 0.78
0.05 0.03 0.07 0.22 0.27 0.25 0.24 0.25 0.27 0.26 0.23 0.22 0.19 0.16 0.16 0.17 0.18 0.22 0.22 0.23 0.28 0.30 0.31 0.31 0.28 0.31 0.36 0.41 0.47 0.56 0.73 0.95 1.31 1.70 1.89 1.15 0.65 0.86 0.96 0.87 0.85 0.77 0.77
0.10 0.07 0.11 0.20 0.22 0.23 0.25 0.26 0.26 0.24 0.22 0.21 0.19 0.18 0.20 0.22 0.25 0.27 0.28 0.29 0.31 0.32 0.32 0.32 0.29 0.34 0.34 0.37 0.44 0.56 0.78 0.97 1.26 1.52 1.22 1.20 1.11 0.88 0.75 0.70 0.77 0.90 0.78
0.13 0.12 0.16 0.22 0.23 0.24 0.26 0.26 0.25 0.23 0.21 0.20 0.19 0.21 0.24 0.27 0.32 0.31 0.33 0.35 0.33 0.34 0.38 0.40 0.35 0.34 0.35 0.37 0.45 0.54 0.68 0.94 1.15 0.90 0.71 0.94 0.97 0.83 0.76 0.76 0.73 0.78 0.72
0.34 0.31 0.29 0.31 0.29 0.27 0.27 0.28 0.27 0.26 0.24 0.22 0.21 0.23 0.27 0.30 0.35 0.37 0.39 0.39 0.35 0.35 0.41 0.45 0.40 0.37 0.44 0.50 0.53 0.58 0.72 0.98 0.95 0.72 0.73 0.90 0.86 0.76 0.93 1.04 0.91 0.78 0.69
0.73 0.65 0.58 0.55 0.45 0.39 0.34 0.34 0.33 0.33 0.29 0.28 0.27 0.27 0.29 0.32 0.35 0.39 0.41 0.42 0.39 0.41 0.46 0.44 0.41 0.45 0.50 0.55 0.55 0.57 0.73 0.80 0.66 0.69 0.75 0.78 0.63 0.66 0.92 1.12 1.06 1.00 0.84
1.02 0.96 0.76 0.64 0.57 0.50 0.51 0.46 0.41 0.39 0.38 0.37 0.38 0.34 0.34 0.33 0.34 0.36 0.44 0.46 0.42 0.43 0.48 0.49 0.47 0.52 0.54 0.54 0.54 0.60 0.73 0.80 0.71 0.81 0.77 0.74 0.56 0.67 0.86 1.01 1.05 1.05 0.92
1.35 1.18 0.90 0.75 0.78 0.64 0.58 0.56 0.51 0.44 0.43 0.42 0.42 0.43 0.44 0.43 0.42 0.46 0.49 0.52 0.48 0.47 0.50 0.57 0.57 0.56 0.57 0.58 0.59 0.67 0.77 0.75 0.65 0.76 0.94 0.75 0.66 0.86 1.02 1.03 1.12 1.16 1.03
1.76 1.34 0.97 0.90 1.01 0.88 0.69 0.63 0.72 0.65 0.62 0.62 0.67 0.67 0.80 1.00 0.89 0.90 0.75 0.73 0.70 0.72 0.77 0.84 0.84 0.84 0.81 0.70 0.76 0.90 0.86 0.80 0.96 1.09 1.23 0.83 0.79 1.03 1.21 1.24 1.23 1.18 1.13
1.71 1.67 1.32 1.09 1.04 1.00 0.85 0.87 1.18 1.15 1.14 1.24 1.31 1.25 1.49 1.50 1.32 0.97 0.95 1.13 1.09 1.21 1.34 1.51 1.62 1.41 1.16 1.01 1.19 1.58 1.13 0.97 1.15 1.19 1.19 0.99 1.05 1.34 1.48 1.47 1.31 1.13 1.09
1.67 1.61 1.62 1.39 1.21 1.16 1.25 1.19 1.34 1.49 1.60 1.72 1.64 1.67 1.87 1.59 1.33 1.16 1.30 1.57 1.59 1.69 1.79 2.03 2.17 1.68 1.68 1.97 2.03 1.92 1.65 1.53 1.49 1.56 1.50 1.48 1.54 1.78 1.80 1.75 1.62 1.39 1.23
1.89 1.82 2.07 1.96 1.75 1.71 1.61 1.60 1.46 1.39 1.45 1.59 1.67 1.67 1.82 1.78 1.63 1.63 1.73 1.76 1.92 2.09 2.33 2.23 2.37 2.39 2.46 2.34 2.34 2.32 2.19 2.03 1.90 2.03 2.32 2.21 2.10 2.12 2.22 2.05 1.81 1.71 1.59
2.32 2.39 2.57 2.54 2.58 2.44 2.15 1.92 1.56 1.48 1.41 1.42 1.51 1.53 1.75 1.96 1.97 2.05 1.89 1.87 1.65 1.86 2.24 2.49 2.54 2.74 2.87 2.79 2.44 2.22 2.21 2.16 1.94 1.92 2.16 2.39 2.41 2.29 2.34 2.33 2.06 1.93 1.89
2.93 3.12 3.15 3.15 3.10 2.90 2.42 2.14 1.90 1.62 1.58 1.47 1.49 1.58 2.02 2.22 2.13 2.18 2.10 2.00 1.76 1.83 2.17 2.51 2.60 2.87 2.85 2.89 2.42 2.13 2.06 2.08 1.87 1.75 1.82 2.18 2.20 2.08 2.10 2.28 2.34 2.27 2.17
3.60 3.79 3.95 3.87 3.55 3.40 2.97 2.37 2.00 1.74 1.53 1.58 1.72 1.82 2.10 2.26 2.37 2.48 2.38 2.05 1.89 2.01 2.19 2.23 2.37 2.81 2.65 2.64 2.50 2.44 2.37 2.16 1.92 1.78 1.73 1.84 1.79 1.93 2.02 2.08 2.28 2.41 2.47
4.17 4.58 4.75 4.48 4.27 4.05 3.56 3.00 2.59 2.30 2.08 2.06 2.04 1.93 1.80 2.00 2.13 2.26 1.99 1.66 1.80 2.05 2.21 2.16 2.14 2.51 2.58 2.63 2.67 2.57 2.42 2.20 1.89 1.75 1.69 1.61 1.62 1.48 1.70 1.92 2.11 2.27 2.56
4.47 5.20 5.57 5.73 5.12 4.50 3.81 3.29 2.89 2.69 2.49 2.29 2.03 1.82 1.57 1.43 1.40 1.51 1.40 1.34 1.47 1.75 1.81 1.61 1.75 2.02 2.17 2.33 2.23 2.05 1.83 1.63 1.48 1.38 1.34 1.24 1.39 1.45 1.51 1.58 1.86 2.01 2.39
4.66 5.37 5.75 5.87 5.24 4.41 3.89 3.62 3.27 2.91 2.61 2.26 1.89 1.64 1.33 1.22 1.09 1.18 1.17 1.08 1.13 1.21 1.27 1.45 1.67 1.76 1.69 1.79 1.66 1.56 1.46 1.26 1.18 1.13 0.96 0.96 1.07 1.04 1.11 1.34 1.60 1.46 1.86
5.12 5.75 5.81 5.40 4.59 3.96 3.44 3.15 2.80 2.55 2.36 1.96 1.58 1.33 1.16 1.11 1.02 1.09 1.03 1.02 1.01 0.99 1.00 1.13 1.28 1.34 1.18 1.34 1.58 1.48 1.23 0.99 0.93 0.90 0.81 0.83 0.84 0.88 1.05 1.36 1.49 1.45 1.35
4.72 5.05 5.02 4.52 3.70 3.18 2.79 2.68 2.43 2.19 1.87 1.64 1.41 1.28 1.07 0.99 0.92 0.90 0.96 0.86 0.83 0.92 0.90 0.95 1.07 1.09 0.98 1.08 1.28 1.35 1.17 1.11 0.90 0.59 0.64 0.66 0.64 0.80 0.92 1.04 1.26 1.50 1.46
4.14 3.90 3.53 3.24 2.87 2.73 2.59 2.36 2.13 2.03 1.74 1.49 1.23 1.10 0.94 0.82 0.74 0.71 0.71 0.68 0.70 0.70 0.76 0.84 0.91 1.00 0.96 0.88 0.93 1.08 0.99 0.95 0.87 0.66 0.53 0.56 0.67 0.76 0.77 0.94 1.06 1.31 1.50
3.15 2.83 2.61 2.52 2.44 2.32 2.20 2.07 1.73 1.48 1.38 1.22 1.09 1.02 0.92 0.79 0.71 0.67 0.60 0.60 0.61 0.57 0.69 0.63 0.73 0.88 0.93 0.80 0.79 0.79 0.79 0.84 0.85 0.81 0.68 0.57 0.68 0.71 0.77 0.86 1.01 1.26 1.38
1.99 2.05 2.08 2.17 2.24 2.09 2.02 1.96 1.80 1.49 1.42 1.37 1.31 1.28 1.13 0.95 0.81 0.67 0.65 0.65 0.64 0.54 0.58 0.61 0.73 0.80 0.85 0.78 0.74 0.77 0.84 0.84 0.73 0.76 0.78 0.74 0.75 0.63 0.74 0.89 1.00 1.12 1.19
1.36 1.41 1.55 1.63 1.76 1.87 1.85 1.69 1.60 1.47 1.49 1.49 1.39 1.21 1.02 0.93 0.85 0.74 0.72 0.78 0.71 0.66 0.65 0.63 0.68 0.71 0.82 0.88 0.85 0.78 0.81 0.85 0.72 0.70 0.64 0.63 0.72 0.67 0.81 0.99 1.04 1.10 1.13

GEFSSE_prec_meanprecacc_174.txt.gz
Total_Precipitation_Accumulation
0.25 0.27 0.43 0.39 0.31 0.27 0.28 0.31 0.33 0.30 0.29 0.24 0.21 0.17 0.13 0.10 0.10 0.13 0.14 0.15 0.17 0.23 0.34 0.41 0.44 0.45 0.49 0.52 0.56 0.55 0.54 0.56 0.75 0.94 0.98 1.01 1.10 1.22 1.41 1.57 1.48 1.03 0.96
0.08 0.14 0.37 0.37 0.29 0.26 0.24 0.28 0.30 0.30 0.29 0.24 0.20 0.18 0.15 0.12 0.13 0.15 0.17 0.20 0.21 0.27 0.33 0.41 0.42 0.42 0.43 0.45 0.48 0.53 0.57 0.72 0.98 1.28 1.41 1.29 1.38 1.35 1.37 1.35 1.41 0.98 0.99
0.05 0.06 0.22 0.37 0.31 0.26 0.24 0.25 0.27 0.28 0.26 0.23 0.20 0.17 0.16 0.15 0.16 0.19 0.22 0.24 0.27 0.32 0.36 0.39 0.41 0.38 0.38 0.45 0.45 0.51 0.66 0.93 1.24 1.67 1.96 1.44 1.07 1.32 1.24 1.22 1.17 0.87 0.84
0.06 0.04 0.08 0.25 0.29 0.26 0.25 0.26 0.27 0.26 0.24 0.22 0.20 0.17 0.17 0.20 0.22 0.25 0.25 0.27 0.32 0.34 0.34 0.35 0.32 0.37 0.43 0.50 0.56 0.63 0.80 1.03 1.40 1.78 1.95 1.19 0.71 0.92 1.01 0.93 0.92 0.83 0.83
0.10 0.07 0.12 0.22 0.23 0.24 0.25 0.27 0.26 0.25 0.23 0.21 0.20 0.19 0.21 0.24 0.28 0.32 0.32 0.32 0.35 0.35 0.34 0.35 0.34 0.41 0.41 0.49 0.56 0.63 0.85 1.07 1.35 1.55 1.25 1.24 1.17 0.94 0.79 0.73 0.82 0.95 0.84
0.13 0.12 0.17 0.23 0.24 0.25 0.27 0.27 0.26 0.24 0.22 0.20 0.21 0.22 0.25 0.29 0.34 0.35 0.36 0.37 0.36 0.38 0.42 0.44 0.40 0.41 0.41 0.44 0.54 0.63 0.76 1.03 1.21 0.92 0.74 0.98 1.02 0.89 0.80 0.80 0.78 0.84 0.78
0.35 0.32 0.30 0.32 0.29 0.28 0.28 0.29 0.28 0.27 0.25 0.24 0.22 0.24 0.28 0.32 0.38 0.40 0.41 0.42 0.38 0.38 0.43 0.47 0.44 0.44 0.54 0.59 0.63 0.67 0.79 1.02 0.99 0.75 0.76 0.94 0.91 0.81 0.98 1.09 0.96 0.87 0.76
0.74 0.66 0.58 0.55 0.45 0.39 0.35 0.35 0.34 0.34 0.30 0.30 0.29 0.29 0.31 0.34 0.37 0.41 0.43 0.45 0.42 0.43 0.48 0.47 0.45 0.51 0.57 0.63 0.64 0.65 0.78 0.83 0.69 0.72 0.76 0.80 0.66 0.70 0.99 1.21 1.17 1.15 0.96
1.04 0.98 0.78 0.66 0.59 0.51 0.52 0.47 0.42 0.40 0.39 0.38 0.39 0.35 0.35 0.35 0.35 0.38 0.46 0.49 0.44 0.45 0.50 0.52 0.51 0.58 0.61 0.62 0.63 0.67 0.77 0.83 0.73 0.83 0.78 0.75 0.59 0.70 0.90 1.08 1.15 1.14 1.00
1.38 1.22 0.93 0.78 0.79 0.65 0.59 0.57 0.52 0.45 0.44 0.43 0.44 0.44 0.46 0.45 0.44 0.48 0.52 0.55 0.50 0.48 0.52 0.60 0.61 0.60 0.63 0.65 0.67 0.75 0.83 0.78 0.66 0.77 0.95 0.76 0.68 0.88 1.05 1.06 1.16 1.19 1.06
1.78 1.37 1.00 0.93 1.02 0.89 0.70 0.65 0.74 0.67 0.63 0.64 0.69 0.69 0.82 1.01 0.89 0.91 0.76 0.76 0.71 0.74 0.78 0.86 0.88 0.87 0.84 0.75 0.83 0.99 0.92 0.82 0.98 1.10 1.23 0.84 0.81 1.06 1.25 1.28 1.26 1.21 1.16
1.72 1.67 1.35 1.12 1.05 1.01 0.86 0.88 1.18 1.16 1.15 1.25 1.31 1.26 1.50 1.50 1.33 0.98 0.96 1.16 1.13 1.24 1.36 1.55 1.67 1.45 1.18 1.03 1.23 1.63 1.17 1.00 1.16 1.20 1.20 1.00 1.07 1.36 1.52 1.51 1.34 1.16 1.12
1.71 1.62 1.64 1.42 1.22 1.17 1.26 1.21 1.35 1.50 1.61 1.73 1.65 1.68 1.87 1.60 1.33 1.17 1.30 1.59 1.62 1.71 1.81 2.05 2.19 1.69 1.70 1.98 2.04 1.95 1.68 1.56 1.51 1.57 1.51 1.50 1.56 1.80 1.82 1.78 1.65 1.42 1.26
1.95 1.86 2.09 1.98 1.77 1.72 1.62 1.62 1.47 1.40 1.46 1.60 1.69 1.69 1.84 1.79 1.64 1.64 1.73 1.76 1.92 2.09 2.34 2.25 2.40 2.41 2.48 2.36 2.35 2.33 2.21 2.05 1.92 2.04 2.34 2.23 2.11 2.14 2.24 2.07 1.84 1.74 1.61
2.39 2.44 2.61 2.59 2.61 2.46 2.19 1.96 1.60 1.52 1.44 1.45 1.53 1.55 1.77 1.98 1.98 2.07 1.90 1.88 1.66 1.88 2.25 2.50 2.56 2.75 2.89 2.81 2.45 2.22 2.23 2.17 1.94 1.93 2.18 2.41 2.43 2.31 2.36 2.35 2.09 1.96 1.91
3.00 3.20 3.24 3.23 3.17 2.95 2.48 2.22 1.97 1.69 1.65 1.52 1.52 1.61 2.04 2.24 2.16 2.21 2.13 2.03 1.78 1.86 2.19 2.53 2.61 2.88 2.87 2.92 2.43 2.14 2.07 2.09 1.87 1.75 1.83 2.20 2.23 2.11 2.14 2.31 2.37 2.30 2.20
3.67 3.88 4.09 3.99 3.66 3.51 3.07 2.47 2.06 1.80 1.60 1.64 1.76 1.85 2.13 2.29 2.40 2.51 2.41 2.07 1.91 2.04 2.22 2.24 2.39 2.83 2.67 2.67 2.52 2.45 2.38 2.16 1.93 1.78 1.74 1.85 1.80 1.95 2.05 2.12 2.32 2.45 2.50
4.23 4.66 4.88 4.58 4.38 4.21 3.72 3.12 2.69 2.41 2.19 2.14 2.11 1.98 1.85 2.04 2.16 2.29 2.03 1.69 1.83 2.08 2.23 2.18 2.18 2.56 2.63 2.67 2.69 2.59 2.43 2.21 1.89 1.75 1.70 1.62 1.62 1.48 1.72 1.95 2.16 2.32 2.61
4.53 5.29 5.67 5.82 5.26 4.76 4.08 3.53 3.06 2.81 2.58 2.37 2.11 1.89 1.65 1.48 1.43 1.54 1.43 1.37 1.50 1.77 1.84 1.63 1.77 2.05 2.20 2.37 2.27 2.08 1.85 1.64 1.49 1.38 1.35 1.25 1.40 1.45 1.52 1.60 1.90 2.06 2.44
4.71 5.43 5.82 5.98 5.39 4.58 4.17 3.96 3.49 3.05 2.72 2.37 2.01 1.75 1.42 1.26 1.12 1.21 1.21 1.10 1.15 1.23 1.29 1.46 1.70 1.79 1.71 1.80 1.68 1.59 1.49 1.28 1.19 1.14 0.98 0.97 1.09 1.06 1.13 1.36 1.62 1.49 1.91
5.16 5.81 5.90 5.51 4.74 4.14 3.62 3.30 2.93 2.67 2.46 2.06 1.69 1.44 1.26 1.18 1.08 1.14 1.07 1.04 1.03 1.00 1.01 1.15 1.31 1.38 1.21 1.36 1.60 1.50 1.25 1.01 0.96 0.93 0.83 0.86 0.86 0.90 1.06 1.39 1.53 1.49 1.38
4.78 5.12 5.11 4.66 3.88 3.36 2.97 2.83 2.54 2.30 1.99 1.75 1.51 1.38 1.16 1.09 1.01 0.97 1.01 0.90 0.86 0.94 0.93 0.97 1.11 1.14 1.02 1.11 1.32 1.39 1.20 1.13 0.92 0.61 0.67 0.70 0.68 0.83 0.95 1.08 1.29 1.52 1.49
4.20 3.97 3.66 3.43 3.04 2.89 2.73 2.48 2.23 2.14 1.87 1.61 1.33 1.19 1.02 0.91 0.84 0.80 0.78 0.74 0.75 0.73 0.78 0.87 0.96 1.05 1.00 0.91 0.96 1.11 1.02 0.97 0.88 0.68 0.55 0.59 0.70 0.81 0.84 1.00 1.11 1.37 1.57
3.21 2.89 2.71 2.63 2.51 2.41 2.28 2.13 1.79 1.55 1.46 1.31 1.17 1.11 1.02 0.91 0.85 0.78 0.69 0.67 0.67 0.61 0.72 0.66 0.76 0.91 0.96 0.81 0.81 0.81 0.81 0.86 0.86 0.82 0.69 0.58 0.69 0.73 0.80 0.90 1.07 1.33 1.46
2.04 2.09 2.13 2.23 2.30 2.15 2.07 2.01 1.85 1.55 1.49 1.46 1.41 1.38 1.26 1.09 0.92 0.76 0.73 0.70 0.70 0.58 0.62 0.65 0.77 0.83 0.87 0.80 0.77 0.79 0.86 0.86 0.74 0.77 0.78 0.74 0.76 0.64 0.76 0.93 1.04 1.17 1.24
1.40 1.46 1.59 1.69 1.81 1.91 1.88 1.72 1.64 1.53 1.56 1.57 1.47 1.30 1.12 1.02 0.91 0.80 0.78 0.84 0.77 0.71 0.70 0.68 0.71 0.74 0.85 0.91 0.88 0.81 0.83 0.86 0.74 0.72 0.66 0.64 0.73 0.68 0.84 1.04 1.09 1.14 1.17

GEFSSE_prec_meanprecacc_180.txt.gz
Total_Precipitation_Accumulation
0.29 0.32 0.50 0.45 0.35 0.31 0.31 0.33 0.35 0.33 0.31 0.27 0.23 0.19 0.15 0.12 0.13 0.17 0.18 0.21 0.23 0.30 0.42 0.50 0.52 0.51 0.53 0.55 0.60 0.59 0.60 0.65 0.83 1.02 1.07 1.09 1.18 1.32 1.53 1.65 1.54 1.07 1.01
0.09 0.17 0.42 0.42 0.33 0.30 0.27 0.31 0.32 0.33 0.31 0.26 0.22 0.19 0.17 0.15 0.16 0.19 0.21 0.25 0.28 0.35 0.41 0.48 0.48 0.47 0.47 0.50 0.53 0.58 0.62 0.81 1.07 1.38 1.50 1.37 1.45 1.45 1.48 1.44 1.45 1.03 1.07
0.06 0.08 0.25 0.40 0.34 0.29 0.28 0.28 0.30 0.30 0.28 0.25 0.22 0.19 0.20 0.20 0.21 0.24 0.27 0.30 0.34 0.38 0.42 0.43 0.45 0.42 0.43 0.51 0.51 0.57 0.72 1.00 1.32 1.77 2.09 1.57 1.17 1.41 1.33 1.29 1.22 0.93 0.92
0.06 0.05 0.09 0.27 0.31 0.28 0.28 0.29 0.30 0.29 0.26 0.24 0.23 0.21 0.22 0.27 0.29 0.32 0.32 0.34 0.38 0.39 0.38 0.39 0.37 0.42 0.49 0.56 0.62 0.68 0.87 1.11 1.46 1.87 2.06 1.31 0.81 1.00 1.09 0.98 0.96 0.88 0.88
0.10 0.08 0.13 0.24 0.25 0.26 0.27 0.28 0.29 0.27 0.25 0.23 0.23 0.23 0.26 0.29 0.35 0.38 0.37 0.36 0.38 0.39 0.38 0.40 0.40 0.47 0.47 0.55 0.62 0.68 0.92 1.16 1.44 1.63 1.33 1.34 1.26 1.02 0.85 0.77 0.85 0.99 0.89
0.13 0.13 0.18 0.26 0.26 0.27 0.28 0.28 0.27 0.25 0.24 0.23 0.24 0.26 0.30 0.34 0.39 0.40 0.40 0.41 0.40 0.43 0.47 0.51 0.47 0.47 0.48 0.50 0.59 0.69 0.82 1.09 1.27 0.97 0.81 1.06 1.10 0.97 0.87 0.85 0.83 0.89 0.84
0.35 0.33 0.31 0.35 0.32 0.30 0.29 0.30 0.30 0.29 0.28 0.26 0.26 0.28 0.32 0.36 0.42 0.45 0.47 0.46 0.41 0.42 0.47 0.54 0.51 0.50 0.59 0.64 0.67 0.72 0.85 1.07 1.02 0.78 0.80 1.00 0.97 0.87 1.04 1.13 1.01 0.91 0.80
0.74 0.67 0.61 0.58 0.48 0.41 0.36 0.36 0.36 0.36 0.33 0.32 0.32 0.33 0.34 0.38 0.41 0.46 0.48 0.49 0.46 0.46 0.51 0.52 0.51 0.56 0.62 0.67 0.68 0.69 0.82 0.87 0.70 0.73 0.79 0.83 0.70 0.77 1.06 1.25 1.22 1.20 0.99
1.06 0.99 0.80 0.68 0.61 0.53 0.54 0.49 0.44 0.42 0.42 0.41 0.42 0.40 0.38 0.39 0.39 0.43 0.50 0.54 0.48 0.48 0.54 0.58 0.57 0.63 0.66 0.66 0.68 0.71 0.80 0.85 0.75 0.85 0.81 0.79 0.63 0.77 0.97 1.14 1.21 1.20 1.05
1.41 1.23 0.93 0.78 0.81 0.67 0.61 0.59 0.54 0.48 0.47 0.46 0.47 0.47 0.49 0.48 0.47 0.52 0.56 0.61 0.55 0.54 0.58 0.66 0.67 0.67 0.68 0.69 0.71 0.79 0.86 0.81 0.69 0.81 1.00 0.80 0.73 0.94 1.10 1.11 1.20 1.23 1.12
1.80 1.38 1.01 0.93 1.03 0.91 0.72 0.67 0.77 0.70 0.67 0.67 0.73 0.72 0.86 1.07 0.94 0.96 0.79 0.80 0.76 0.79 0.84 0.92 0.92 0.93 0.89 0.80 0.88 1.04 0.95 0.85 1.00 1.12 1.29 0.88 0.85 1.11 1.29 1.31 1.30 1.26 1.21
1.73 1.68 1.36 1.12 1.06 1.02 0.87 0.92 1.24 1.21 1.20 1.30 1.36 1.29 1.55 1.56 1.38 1.01 0.99 1.20 1.17 1.29 1.41 1.59 1.70 1.47 1.21 1.06 1.28 1.68 1.20 1.02 1.18 1.21 1.22 1.03 1.11 1.41 1.57 1.54 1.38 1.21 1.16
1.72 1.63 1.65 1.44 1.24 1.20 1.29 1.24 1.39 1.55 1.65 1.77 1.69 1.71 1.92 1.63 1.37 1.20 1.36 1.64 1.67 1.75 1.84 2.07 2.21 1.72 1.72 2.02 2.10 2.01 1.71 1.56 1.51 1.57 1.52 1.51 1.59 1.84 1.86 1.82 1.69 1.46 1.29
1.97 1.88 2.12 2.01 1.80 1.75 1.67 1.67 1.52 1.44 1.48 1.63 1.72 1.71 1.87 1.83 1.68 1.67 1.77 1.80 1.96 2.13 2.37 2.28 2.43 2.44 2.50 2.39 2.39 2.39 2.25 2.07 1.94 2.07 2.37 2.25 2.13 2.17 2.27 2.10 1.88 1.78 1.64
2.42 2.46 2.64 2.62 2.65 2.50 2.24 2.00 1.65 1.56 1.47 1.48 1.57 1.58 1.79 2.01 2.02 2.12 1.94 1.92 1.69 1.89 2.26 2.53 2.59 2.79 2.92 2.83 2.48 2.26 2.26 2.19 1.98 1.96 2.21 2.43 2.45 2.34 2.40 2.39 2.13 2.00 1.95
3.04 3.23 3.27 3.26 3.21 2.99 2.54 2.27 2.02 1.73 1.71 1.58 1.57 1.64 2.07 2.26 2.20 2.27 2.18 2.07 1.81 1.88 2.21 2.57 2.65 2.92 2.91 2.95 2.47 2.18 2.10 2.11 1.89 1.77 1.86 2.24 2.25 2.13 2.17 2.35 2.41 2.34 2.23
3.72 3.92 4.14 4.04 3.70 3.58 3.17 2.55 2.11 1.84 1.65 1.70 1.83 1.91 2.17 2.32 2.44 2.56 2.47 2.14 1.96 2.08 2.26 2.29 2.45 2.89 2.72 2.70 2.56 2.49 2.42 2.19 1.94 1.79 1.76 1.88 1.82 1.97 2.07 2.15 2.36 2.50 2.54
4.30 4.72 4.95 4.63 4.42 4.29 3.86 3.28 2.79 2.48 2.26 2.21 2.18 2.05 1.90 2.09 2.21 2.35 2.09 1.76 1.90 2.14 2.30 2.25 2.25 2.64 2.71 2.74 2.75 2.64 2.48 2.25 1.91 1.77 1.72 1.64 1.65 1.51 1.75 1.98 2.18 2.37 2.65
4.62 5.37 5.76 5.90 5.33 4.85 4.20 3.73 3.25 2.92 2.67 2.44 2.17 1.96 1.71 1.54 1.48 1.60 1.51 1.46 1.56 1.84 1.91 1.68 1.84 2.13 2.28 2.44 2.32 2.15 1.90 1.67 1.51 1.40 1.36 1.26 1.42 1.48 1.55 1.63 1.91 2.09 2.49
4.80 5.52 5.89 6.05 5.46 4.64 4.25 4.13 3.74 3.19 2.81 2.44 2.08 1.84 1.49 1.33 1.19 1.29 1.28 1.16 1.20 1.30 1.36 1.54 1.79 1.88 1.80 1.87 1.71 1.62 1.53 1.30 1.22 1.16 0.99 1.00 1.12 1.07 1.14 1.38 1.67 1.52 1.93
5.22 5.86 5.94 5.60 4.86 4.25 3.72 3.41 3.06 2.78 2.55 2.13 1.76 1.50 1.33 1.25 1.15 1.24 1.14 1.11 1.08 1.06 1.08 1.21 1.39 1.46 1.28 1.42 1.66 1.54 1.28 1.04 0.98 0.95 0.86 0.89 0.90 0.93 1.08 1.42 1.59 1.56 1.42
4.80 5.14 5.17 4.74 3.97 3.45 3.07 2.93 2.62 2.39 2.08 1.83 1.60 1.47 1.24 1.16 1.08 1.04 1.09 0.97 0.92 1.01 0.99 1.05 1.21 1.24 1.10 1.18 1.39 1.46 1.26 1.17 0.96 0.63 0.70 0.73 0.72 0.88 0.99 1.11 1.34 1.60 1.55
4.22 4.00 3.71 3.48 3.08 2.94 2.79 2.55 2.30 2.22 1.97 1.73 1.46 1.30 1.09 0.96 0.89 0.85 0.83 0.80 0.83 0.78 0.85 0.96 1.05 1.17 1.12 0.98 1.00 1.19 1.09 1.03 0.94 0.71 0.58 0.61 0.74 0.85 0.88 1.05 1.16 1.43 1.64
3.24 2.92 2.75 2.67 2.56 2.46 2.34 2.18 1.85 1.61 1.55 1.42 1.30 1.22 1.10 0.97 0.91 0.84 0.73 0.74 0.75 0.67 0.80 0.73 0.82 1.00 1.06 0.90 0.88 0.87 0.87 0.94 0.94 0.89 0.74 0.60 0.71 0.76 0.84 0.94 1.10 1.36 1.51
2.07 2.13 2.17 2.27 2.34 2.20 2.13 2.05 1.91 1.62 1.56 1.55 1.51 1.50 1.37 1.18 1.00 0.82 0.79 0.80 0.78 0.65 0.69 0.74 0.85 0.91 0.95 0.90 0.87 0.87 0.94 0.94 0.81 0.84 0.86 0.81 0.80 0.67 0.79 0.97 1.08 1.20 1.28
1.43 1.50 1.62 1.72 1.85 1.94 1.92 1.77 1.69 1.60 1.63 1.65 1.55 1.38 1.19 1.09 0.99 0.86 0.84 0.92 0.86 0.81 0.78 0.77 0.78 0.81 0.92 1.00 0.99 0.90 0.92 0.95 0.83 0.81 0.73 0.71 0.80 0.73 0.88 1.08 1.13 1.19 1.22

GEFSSE_prec_meanprecacc_186.txt.gz
Total_Precipitation_Accumulation
0.34 0.37 0.56 0.50 0.41 0.37 0.37 0.38 0.40 0.37 0.36 0.31 0.27 0.22 0.19 0.17 0.18 0.24 0.27 0.28 0.29 0.37 0.52 0.61 0.60 0.60 0.63 0.62 0.66 0.65 0.65 0.70 0.89 1.08 1.14 1.15 1.24 1.39 1.61 1.74 1.65 1.14 1.06
0.13 0.20 0.45 0.44 0.36 0.33 0.32 0.35 0.36 0.36 0.35 0.30 0.27 0.24 0.22 0.21 0.21 0.26 0.29 0.34 0.36 0.43 0.50 0.56 0.54 0.53 0.54 0.55 0.57 0.63 0.66 0.85 1.14 1.46 1.58 1.43 1.53 1.54 1.58 1.55 1.57 1.12 1.13
0.08 0.10 0.26 0.42 0.36 0.32 0.31 0.32 0.34 0.33 0.32 0.29 0.26 0.24 0.26 0.26 0.27 0.30 0.34 0.38 0.44 0.48 0.51 0.49 0.51 0.47 0.48 0.56 0.56 0.63 0.78 1.06 1.41 1.90 2.24 1.65 1.24 1.51 1.45 1.39 1.29 0.99 0.98
0.07 0.07 0.10 0.28 0.33 0.31 0.31 0.33 0.33 0.31 0.29 0.28 0.27 0.25 0.27 0.33 0.37 0.39 0.37 0.39 0.45 0.46 0.44 0.45 0.42 0.46 0.52 0.59 0.66 0.73 0.93 1.20 1.59 2.05 2.21 1.41 0.91 1.10 1.19 1.05 1.00 0.92 0.93
0.10 0.08 0.14 0.25 0.27 0.28 0.29 0.31 0.31 0.29 0.28 0.27 0.28 0.28 0.32 0.36 0.43 0.46 0.44 0.42 0.43 0.44 0.44 0.46 0.44 0.51 0.51 0.58 0.64 0.72 0.97 1.25 1.57 1.78 1.43 1.44 1.38 1.12 0.91 0.82 0.91 1.04 0.93
0.14 0.13 0.18 0.27 0.28 0.28 0.29 0.29 0.30 0.29 0.28 0.28 0.30 0.32 0.36 0.38 0.45 0.47 0.47 0.47 0.45 0.48 0.53 0.56 0.51 0.52 0.53 0.53 0.63 0.72 0.87 1.17 1.38 1.03 0.88 1.15 1.18 1.06 0.93 0.91 0.89 0.93 0.87
0.36 0.34 0.31 0.36 0.33 0.31 0.30 0.31 0.32 0.32 0.32 0.33 0.32 0.34 0.38 0.41 0.48 0.51 0.53 0.54 0.49 0.48 0.53 0.59 0.56 0.54 0.62 0.67 0.71 0.77 0.89 1.12 1.08 0.82 0.86 1.09 1.05 0.94 1.12 1.20 1.06 0.94 0.83
0.75 0.69 0.61 0.59 0.49 0.42 0.38 0.38 0.38 0.39 0.37 0.37 0.36 0.38 0.38 0.43 0.45 0.49 0.53 0.56 0.53 0.52 0.55 0.57 0.57 0.60 0.65 0.70 0.72 0.73 0.85 0.91 0.73 0.75 0.83 0.89 0.74 0.83 1.13 1.33 1.27 1.22 1.02
1.07 1.00 0.81 0.68 0.62 0.54 0.55 0.51 0.46 0.45 0.44 0.44 0.45 0.42 0.41 0.42 0.43 0.46 0.54 0.59 0.52 0.52 0.56 0.60 0.59 0.65 0.68 0.69 0.72 0.75 0.84 0.88 0.78 0.87 0.83 0.84 0.70 0.85 1.05 1.20 1.24 1.24 1.08
1.44 1.25 0.95 0.80 0.83 0.69 0.62 0.60 0.56 0.50 0.49 0.48 0.49 0.50 0.51 0.52 0.50 0.55 0.60 0.67 0.62 0.60 0.61 0.67 0.69 0.69 0.71 0.71 0.74 0.83 0.91 0.86 0.72 0.83 1.02 0.83 0.80 1.02 1.15 1.14 1.24 1.27 1.16
1.82 1.41 1.03 0.95 1.06 0.94 0.77 0.68 0.79 0.72 0.70 0.72 0.77 0.76 0.96 1.23 1.02 1.02 0.83 0.86 0.83 0.85 0.87 0.94 0.96 0.96 0.92 0.81 0.89 1.06 0.99 0.89 1.03 1.15 1.31 0.90 0.89 1.17 1.34 1.36 1.33 1.28 1.23
1.76 1.70 1.39 1.14 1.09 1.07 0.93 0.95 1.32 1.28 1.25 1.40 1.45 1.37 1.68 1.71 1.52 1.09 1.04 1.24 1.22 1.34 1.44 1.63 1.74 1.51 1.25 1.10 1.29 1.71 1.23 1.04 1.19 1.22 1.24 1.04 1.13 1.44 1.61 1.59 1.41 1.24 1.19
1.75 1.65 1.68 1.47 1.28 1.25 1.36 1.30 1.45 1.63 1.71 1.85 1.79 1.80 2.02 1.71 1.44 1.26 1.42 1.70 1.72 1.81 1.90 2.12 2.29 1.78 1.78 2.08 2.15 2.04 1.74 1.58 1.52 1.58 1.54 1.53 1.61 1.85 1.88 1.84 1.71 1.49 1.32
2.01 1.90 2.13 2.02 1.83 1.81 1.74 1.74 1.57 1.49 1.53 1.69 1.79 1.76 1.93 1.91 1.75 1.74 1.86 1.90 2.07 2.23 2.47 2.35 2.52 2.51 2.55 2.41 2.42 2.42 2.28 2.11 1.96 2.08 2.39 2.26 2.14 2.18 2.29 2.12 1.89 1.80 1.67
2.48 2.50 2.66 2.63 2.67 2.55 2.29 2.06 1.67 1.59 1.51 1.52 1.62 1.62 1.83 2.07 2.08 2.19 2.01 2.01 1.79 1.95 2.30 2.59 2.64 2.84 2.97 2.86 2.50 2.28 2.28 2.21 1.99 1.97 2.22 2.43 2.46 2.35 2.41 2.40 2.15 2.03 1.97
3.11 3.27 3.29 3.29 3.24 3.05 2.61 2.34 2.06 1.75 1.74 1.61 1.61 1.69 2.13 2.34 2.28 2.35 2.24 2.14 1.87 1.91 2.24 2.61 2.69 2.97 2.96 2.98 2.49 2.19 2.11 2.12 1.91 1.79 1.88 2.26 2.26 2.13 2.17 2.36 2.42 2.36 2.25
3.79 3.96 4.16 4.07 3.74 3.64 3.26 2.63 2.17 1.88 1.68 1.74 1.87 1.95 2.22 2.38 2.52 2.66 2.56 2.19 2.00 2.11 2.30 2.32 2.48 2.93 2.77 2.75 2.60 2.51 2.43 2.21 1.96 1.81 1.77 1.90 1.84 1.98 2.08 2.16 2.37 2.51 2.55
4.35 4.76 4.97 4.65 4.46 4.36 3.96 3.39 2.89 2.55 2.32 2.27 2.23 2.08 1.94 2.15 2.27 2.43 2.17 1.82 1.95 2.18 2.33 2.29 2.30 2.69 2.78 2.80 2.82 2.69 2.51 2.27 1.93 1.79 1.74 1.66 1.68 1.53 1.76 1.98 2.18 2.38 2.67
4.66 5.41 5.80 5.96 5.40 4.91 4.28 3.82 3.35 3.00 2.75 2.51 2.22 2.01 1.75 1.59 1.52 1.67 1.59 1.54 1.62 1.90 1.95 1.72 1.91 2.21 2.37 2.52 2.37 2.19 1.92 1.69 1.53 1.41 1.37 1.28 1.44 1.51 1.56 1.64 1.92 2.10 2.51
4.84 5.56 5.94 6.10 5.53 4.72 4.33 4.21 3.85 3.30 2.89 2.51 2.14 1.91 1.56 1.40 1.24 1.36 1.36 1.23 1.25 1.37 1.44 1.61 1.88 1.97 1.90 1.97 1.76 1.67 1.55 1.32 1.24 1.18 1.01 1.01 1.14 1.09 1.15 1.41 1.70 1.54 1.95
5.24 5.90 5.99 5.65 4.92 4.36 3.83 3.52 3.17 2.89 2.65 2.21 1.83 1.59 1.41 1.31 1.23 1.33 1.22 1.20 1.14 1.14 1.16 1.28 1.48 1.56 1.37 1.50 1.75 1.62 1.32 1.06 1.02 0.97 0.88 0.91 0.92 0.95 1.11 1.47 1.64 1.62 1.46
4.81 5.17 5.21 4.79 4.03 3.52 3.16 3.05 2.73 2.48 2.15 1.92 1.69 1.58 1.33 1.22 1.15 1.11 1.20 1.05 0.99 1.10 1.07 1.14 1.33 1.37 1.20 1.26 1.51 1.61 1.40 1.29 1.03 0.67 0.73 0.77 0.76 0.93 1.03 1.16 1.41 1.71 1.66
4.24 4.03 3.75 3.54 3.14 3.00 2.88 2.65 2.40 2.31 2.03 1.83 1.57 1.40 1.18 1.02 0.93 0.90 0.89 0.87 0.91 0.84 0.95 1.07 1.18 1.33 1.28 1.08 1.09 1.34 1.27 1.22 1.10 0.81 0.65 0.68 0.80 0.93 0.95 1.13 1.23 1.53 1.76
3.29 2.96 2.79 2.72 2.61 2.53 2.42 2.26 1.93 1.70 1.63 1.51 1.39 1.32 1.20 1.05 0.97 0.89 0.78 0.80 0.82 0.73 0.92 0.80 0.93 1.14 1.22 1.04 1.00 0.97 1.01 1.08 1.11 1.04 0.86 0.71 0.85 0.89 0.93 1.01 1.17 1.45 1.61
2.11 2.17 2.21 2.32 2.40 2.27 2.20 2.12 1.98 1.71 1.66 1.64 1.58 1.59 1.47 1.29 1.08 0.88 0.86 0.89 0.88 0.74 0.78 0.83 0.97 1.01 1.06 1.01 1.00 0.99 1.10 1.11 0.96 0.99 1.03 0.97 0.94 0.77 0.86 1.04 1.14 1.27 1.38
1.46 1.55 1.68 1.78 1.90 2.01 1.99 1.83 1.76 1.68 1.72 1.75 1.65 1.47 1.28 1.18 1.09 0.96 0.95 1.06 0.99 0.93 0.87 0.86 0.89 0.92 1.06 1.15 1.13 1.01 1.04 1.09 0.98 0.96 0.87 0.87 0.94 0.84 0.97 1.17 1.21 1.28 1.32

GEFSSE_prec_meanprecacc_192.txt.gz
Total_Precipitation_Accumulation
0.39 0.42 0.61 0.53 0.43 0.40 0.40 0.41 0.43 0.40 0.38 0.34 0.30 0.25 0.21 0.20 0.20 0.26 0.31 0.33 0.36 0.45 0.59 0.67 0.66 0.64 0.68 0.68 0.73 0.72 0.72 0.78 0.96 1.14 1.21 1.23 1.32 1.46 1.67 1.79 1.68 1.16 1.11
0.16 0.23 0.49 0.47 0.38 0.35 0.34 0.38 0.39 0.38 0.37 0.33 0.30 0.26 0.25 0.24 0.25 0.29 0.32 0.38 0.41 0.49 0.56 0.61 0.59 0.58 0.59 0.59 0.62 0.69 0.72 0.94 1.22 1.54 1.67 1.51 1.62 1.62 1.64 1.59 1.61 1.16 1.19
0.10 0.13 0.28 0.44 0.37 0.33 0.33 0.34 0.37 0.35 0.33 0.32 0.31 0.27 0.28 0.29 0.30 0.32 0.37 0.42 0.49 0.53 0.56 0.54 0.56 0.52 0.53 0.60 0.62 0.70 0.85 1.15 1.51 1.99 2.30 1.70 1.31 1.60 1.52 1.46 1.35 1.04 1.03
0.08 0.07 0.11 0.29 0.34 0.31 0.32 0.35 0.37 0.35 0.33 0.31 0.32 0.28 0.31 0.36 0.40 0.42 0.40 0.43 0.49 0.51 0.48 0.48 0.45 0.49 0.55 0.62 0.71 0.80 1.00 1.29 1.72 2.16 2.26 1.44 0.96 1.18 1.26 1.12 1.06 0.95 0.96
0.10 0.08 0.14 0.26 0.27 0.28 0.30 0.33 0.34 0.33 0.31 0.29 0.32 0.30 0.34 0.38 0.46 0.49 0.47 0.44 0.45 0.47 0.47 0.49 0.46 0.53 0.53 0.61 0.67 0.78 1.06 1.34 1.68 1.86 1.48 1.46 1.40 1.17 0.97 0.87 0.96 1.07 0.96
0.15 0.14 0.19 0.27 0.28 0.29 0.30 0.30 0.32 0.31 0.31 0.31 0.34 0.34 0.37 0.40 0.47 0.48 0.50 0.49 0.47 0.50 0.55 0.58 0.53 0.55 0.56 0.57 0.66 0.78 0.96 1.29 1.46 1.08 0.90 1.16 1.19 1.09 0.97 0.95 0.93 0.96 0.89
0.37 0.35 0.32 0.36 0.34 0.32 0.31 0.32 0.33 0.33 0.33 0.35 0.37 0.36 0.40 0.44 0.50 0.53 0.56 0.56 0.50 0.49 0.55 0.61 0.59 0.58 0.66 0.72 0.78 0.84 0.97 1.24 1.18 0.86 0.88 1.10 1.06 0.98 1.16 1.25 1.10 0.96 0.84
0.75 0.69 0.61 0.59 0.49 0.43 0.38 0.38 0.39 0.40 0.38 0.39 0.41 0.41 0.41 0.46 0.50 0.54 0.57 0.58 0.54 0.53 0.56 0.59 0.60 0.62 0.68 0.76 0.79 0.79 0.94 1.02 0.80 0.78 0.85 0.90 0.77 0.86 1.18 1.37 1.30 1.24 1.03
1.08 1.01 0.81 0.68 0.62 0.55 0.56 0.52 0.47 0.47 0.46 0.45 0.49 0.45 0.43 0.45 0.46 0.48 0.56 0.61 0.54 0.55 0.59 0.62 0.62 0.67 0.70 0.73 0.77 0.81 0.93 0.97 0.83 0.90 0.85 0.87 0.75 0.89 1.09 1.23 1.27 1.26 1.10
1.47 1.28 0.97 0.81 0.84 0.70 0.63 0.61 0.57 0.51 0.51 0.51 0.53 0.53 0.54 0.56 0.54 0.57 0.62 0.70 0.64 0.62 0.63 0.69 0.72 0.71 0.72 0.74 0.78 0.89 0.98 0.92 0.77 0.86 1.05 0.88 0.87 1.08 1.20 1.18 1.26 1.29 1.18
1.87 1.45 1.07 0.99 1.08 0.97 0.78 0.69 0.81 0.74 0.71 0.74 0.81 0.80 0.99 1.25 1.03 1.03 0.86 0.91 0.87 0.87 0.89 0.96 0.98 0.99 0.94 0.84 0.92 1.11 1.04 0.96 1.08 1.17 1.35 0.96 0.96 1.22 1.37 1.38 1.35 1.30 1.24
1.82 1.76 1.45 1.20 1.14 1.15 1.00 0.99 1.34 1.29 1.26 1.41 1.46 1.39 1.70 1.74 1.56 1.11 1.08 1.32 1.29 1.38 1.47 1.65 1.77 1.54 1.27 1.12 1.32 1.74 1.28 1.10 1.23 1.23 1.26 1.09 1.18 1.51 1.66 1.62 1.44 1.26 1.20
1.81 1.71 1.76 1.57 1.38 1.34 1.45 1.38 1.49 1.66 1.73 1.87 1.80 1.83 2.05 1.74 1.49 1.30 1.45 1.75 1.76 1.84 1.93 2.16 2.33 1.82 1.82 2.12 2.19 2.07 1.78 1.61 1.55 1.60 1.57 1.57 1.65 1.91 1.94 1.87 1.73 1.50 1.32
2.08 1.97 2.21 2.10 1.93 1.90 1.82 1.82 1.62 1.54 1.58 1.72 1.82 1.80 1.97 1.96 1.83 1.81 1.91 1.95 2.11 2.26 2.50 2.39 2.56 2.55 2.60 2.45 2.45 2.45 2.31 2.13 1.98 2.10 2.41 2.29 2.17 2.22 2.34 2.15 1.91 1.81 1.68
2.53 2.58 2.74 2.74 2.79 2.62 2.35 2.13 1.75 1.68 1.58 1.57 1.65 1.67 1.89 2.15 2.17 2.28 2.10 2.11 1.89 2.00 2.35 2.63 2.67 2.88 3.01 2.89 2.53 2.30 2.30 2.24 2.01 1.99 2.24 2.45 2.48 2.38 2.45 2.44 2.19 2.05 1.98
3.15 3.32 3.33 3.33 3.32 3.11 2.67 2.42 2.13 1.82 1.81 1.67 1.65 1.75 2.19 2.40 2.35 2.44 2.33 2.28 1.98 1.98 2.29 2.64 2.72 3.00 2.99 3.01 2.53 2.22 2.14 2.15 1.93 1.81 1.89 2.27 2.28 2.15 2.20 2.39 2.44 2.37 2.26
3.83 4.00 4.19 4.10 3.77 3.68 3.30 2.68 2.22 1.92 1.73 1.79 1.91 1.99 2.26 2.42 2.56 2.71 2.64 2.29 2.07 2.17 2.35 2.37 2.51 2.96 2.80 2.77 2.62 2.54 2.46 2.24 1.98 1.83 1.79 1.91 1.84 1.99 2.09 2.17 2.38 2.52 2.56
4.38 4.79 5.00 4.67 4.50 4.39 4.00 3.44 2.93 2.60 2.37 2.32 2.29 2.13 1.97 2.18 2.31 2.48 2.25 1.90 2.00 2.23 2.38 2.35 2.35 2.73 2.82 2.84 2.85 2.71 2.53 2.30 1.95 1.81 1.76 1.68 1.70 1.54 1.77 2.00 2.20 2.39 2.69
4.71 5.44 5.82 5.98 5.43 4.95 4.35 3.91 3.41 3.05 2.79 2.55 2.27 2.04 1.78 1.61 1.55 1.71 1.65 1.60 1.67 1.93 1.98 1.75 1.97 2.25 2.42 2.56 2.40 2.22 1.95 1.72 1.57 1.45 1.41 1.31 1.48 1.56 1.61 1.67 1.94 2.12 2.55
4.90 5.60 5.97 6.12 5.56 4.77 4.41 4.29 3.91 3.34 2.92 2.55 2.18 1.95 1.59 1.43 1.27 1.41 1.40 1.28 1.31 1.41 1.47 1.64 1.92 2.01 1.94 2.01 1.79 1.70 1.60 1.37 1.28 1.24 1.06 1.06 1.20 1.17 1.24 1.48 1.75 1.60 2.03
5.27 5.92 6.01 5.67 4.94 4.38 3.88 3.57 3.22 2.93 2.69 2.25 1.87 1.64 1.46 1.36 1.27 1.37 1.26 1.26 1.20 1.20 1.21 1.33 1.53 1.61 1.42 1.55 1.80 1.67 1.38 1.12 1.09 1.06 0.97 1.02 1.01 1.06 1.23 1.57 1.74 1.73 1.59
4.84 5.19 5.24 4.81 4.05 3.54 3.20 3.09 2.78 2.52 2.18 1.95 1.73 1.63 1.39 1.27 1.19 1.14 1.23 1.08 1.05 1.15 1.10 1.17 1.37 1.41 1.24 1.32 1.57 1.66 1.44 1.35 1.11 0.75 0.84 0.91 0.89 1.09 1.20 1.30 1.56 1.87 1.80
4.28 4.06 3.79 3.57 3.17 3.02 2.91 2.69 2.43 2.35 2.07 1.87 1.61 1.45 1.23 1.07 0.98 0.94 0.92 0.90 0.95 0.88 0.98 1.10 1.21 1.37 1.33 1.14 1.15 1.39 1.34 1.27 1.14 0.86 0.73 0.79 0.95 1.11 1.12 1.27 1.37 1.65 1.89
3.32 3.02 2.85 2.76 2.64 2.56 2.45 2.29 1.97 1.73 1.67 1.54 1.42 1.36 1.24 1.09 1.02 0.95 0.82 0.85 0.86 0.77 0.96 0.83 0.95 1.17 1.27 1.09 1.05 1.03 1.07 1.14 1.15 1.08 0.92 0.80 0.96 1.03 1.08 1.13 1.28 1.56 1.75
2.13 2.27 2.32 2.37 2.45 2.32 2.24 2.16 2.02 1.75 1.69 1.68 1.62 1.63 1.50 1.32 1.13 0.93 0.91 0.96 0.94 0.79 0.83 0.87 1.02 1.06 1.11 1.05 1.04 1.04 1.15 1.17 1.01 1.04 1.07 1.03 1.02 0.85 0.97 1.16 1.26 1.40 1.54
1.48 1.65 1.79 1.83 1.95 2.06 2.04 1.89 1.82 1.74 1.78 1.78 1.69 1.51 1.31 1.22 1.13 1.02 1.02 1.14 1.07 0.99 0.91 0.90 0.93 0.97 1.11 1.20 1.18 1.07 1.10 1.14 1.04 1.03 0.92 0.91 0.99 0.88 1.05 1.30 1.35 1.40 1.42

GEFSSE_prec_meanprecacc_198.txt.gz
Total_Precipitation_Accumulation
0.43 0.50 0.70 0.59 0.48 0.45 0.44 0.46 0.47 0.44 0.44 0.39 0.34 0.30 0.26 0.24 0.25 0.31 0.35 0.39 0.46 0.56 0.69 0.75 0.73 0.74 0.78 0.78 0.83 0.83 0.79 0.84 1.02 1.21 1.27 1.28 1.37 1.51 1.73 1.85 1.72 1.19 1.17
0.19 0.29 0.56 0.51 0.41 0.40 0.39 0.42 0.42 0.42 0.40 0.37 0.33 0.30 0.30 0.30 0.31 0.35 0.39 0.44 0.48 0.56 0.63 0.67 0.66 0.66 0.68 0.68 0.69 0.78 0.79 0.99 1.28 1.61 1.74 1.57 1.69 1.67 1.70 1.65 1.66 1.21 1.23
0.10 0.15 0.33 0.48 0.39 0.36 0.37 0.39 0.41 0.38 0.36 0.35 0.34 0.31 0.32 0.33 0.35 0.38 0.43 0.48 0.55 0.58 0.61 0.60 0.62 0.57 0.58 0.67 0.68 0.77 0.91 1.21 1.58 2.07 2.38 1.76 1.39 1.68 1.60 1.53 1.43 1.11 1.08
0.08 0.08 0.12 0.32 0.36 0.34 0.35 0.38 0.40 0.39 0.35 0.33 0.35 0.31 0.34 0.39 0.44 0.47 0.45 0.48 0.54 0.56 0.53 0.54 0.49 0.53 0.59 0.67 0.77 0.85 1.07 1.35 1.79 2.24 2.31 1.50 1.02 1.26 1.34 1.21 1.14 1.03 1.04
0.10 0.08 0.15 0.27 0.29 0.31 0.33 0.35 0.37 0.36 0.35 0.33 0.36 0.33 0.37 0.42 0.51 0.55 0.52 0.49 0.50 0.51 0.51 0.53 0.50 0.57 0.57 0.66 0.74 0.86 1.13 1.40 1.75 1.90 1.50 1.50 1.46 1.24 1.04 0.96 1.03 1.14 1.03
0.15 0.14 0.20 0.29 0.30 0.30 0.32 0.32 0.33 0.33 0.33 0.35 0.40 0.39 0.41 0.43 0.51 0.52 0.55 0.54 0.51 0.53 0.59 0.63 0.57 0.60 0.62 0.64 0.73 0.87 1.03 1.35 1.49 1.09 0.92 1.19 1.25 1.17 1.05 1.03 1.00 1.02 0.94
0.37 0.35 0.33 0.37 0.35 0.33 0.32 0.34 0.34 0.35 0.35 0.38 0.41 0.41 0.45 0.48 0.54 0.56 0.61 0.61 0.54 0.55 0.61 0.67 0.65 0.65 0.73 0.80 0.86 0.93 1.05 1.30 1.20 0.87 0.90 1.13 1.12 1.05 1.23 1.31 1.15 0.99 0.86
0.76 0.69 0.62 0.60 0.51 0.45 0.40 0.40 0.40 0.42 0.39 0.42 0.44 0.44 0.47 0.51 0.54 0.58 0.61 0.62 0.59 0.57 0.62 0.65 0.67 0.69 0.76 0.83 0.87 0.87 1.02 1.07 0.81 0.79 0.86 0.93 0.80 0.90 1.23 1.42 1.35 1.27 1.04
1.09 1.02 0.82 0.69 0.63 0.56 0.59 0.54 0.49 0.48 0.47 0.47 0.51 0.48 0.46 0.49 0.49 0.50 0.58 0.64 0.58 0.59 0.63 0.67 0.67 0.74 0.76 0.80 0.84 0.87 1.00 1.04 0.84 0.91 0.87 0.90 0.78 0.93 1.13 1.28 1.31 1.28 1.12
1.49 1.30 0.98 0.81 0.85 0.72 0.64 0.63 0.59 0.53 0.53 0.53 0.56 0.55 0.57 0.59 0.57 0.60 0.65 0.74 0.68 0.66 0.68 0.75 0.78 0.78 0.81 0.83 0.85 0.96 1.06 0.98 0.79 0.87 1.06 0.90 0.92 1.12 1.24 1.23 1.30 1.33 1.21
1.90 1.48 1.10 1.02 1.10 0.98 0.80 0.71 0.84 0.78 0.74 0.77 0.84 0.84 1.01 1.26 1.05 1.05 0.89 0.98 0.92 0.92 0.95 1.03 1.06 1.09 1.04 0.91 0.99 1.17 1.09 0.98 1.10 1.18 1.37 1.01 1.03 1.28 1.43 1.44 1.41 1.34 1.27
1.86 1.81 1.48 1.24 1.17 1.20 1.03 1.01 1.39 1.35 1.28 1.43 1.49 1.43 1.73 1.75 1.57 1.13 1.12 1.38 1.34 1.43 1.52 1.72 1.85 1.63 1.33 1.16 1.36 1.78 1.31 1.11 1.24 1.27 1.31 1.16 1.27 1.60 1.73 1.68 1.49 1.29 1.22
1.87 1.76 1.81 1.63 1.46 1.42 1.51 1.41 1.53 1.71 1.75 1.89 1.83 1.86 2.07 1.75 1.50 1.33 1.49 1.80 1.81 1.89 1.96 2.20 2.36 1.84 1.83 2.14 2.21 2.11 1.82 1.62 1.56 1.63 1.62 1.64 1.73 1.99 2.01 1.93 1.77 1.53 1.35
2.13 2.01 2.25 2.16 2.03 2.03 1.89 1.87 1.67 1.60 1.62 1.75 1.85 1.83 1.99 1.97 1.84 1.83 1.95 1.99 2.15 2.30 2.53 2.41 2.57 2.56 2.61 2.46 2.46 2.47 2.33 2.15 2.00 2.13 2.47 2.35 2.24 2.28 2.40 2.21 1.94 1.83 1.71
2.56 2.62 2.78 2.80 2.86 2.68 2.42 2.20 1.81 1.74 1.65 1.62 1.68 1.69 1.90 2.16 2.19 2.30 2.11 2.13 1.93 2.05 2.39 2.65 2.68 2.89 3.04 2.90 2.54 2.32 2.31 2.24 2.04 2.02 2.28 2.51 2.53 2.43 2.51 2.49 2.22 2.08 2.01
3.19 3.36 3.36 3.39 3.40 3.18 2.76 2.51 2.22 1.92 1.90 1.73 1.69 1.77 2.21 2.42 2.37 2.45 2.35 2.30 2.01 2.02 2.33 2.67 2.74 3.02 3.01 3.03 2.54 2.23 2.15 2.15 1.94 1.82 1.92 2.31 2.33 2.20 2.24 2.44 2.47 2.40 2.29
3.87 4.04 4.22 4.14 3.83 3.76 3.39 2.75 2.29 2.01 1.83 1.87 1.97 2.03 2.28 2.44 2.59 2.74 2.66 2.31 2.09 2.19 2.38 2.40 2.53 2.98 2.83 2.80 2.64 2.55 2.48 2.25 1.99 1.84 1.80 1.93 1.87 2.03 2.14 2.23 2.42 2.56 2.61
4.44 4.84 5.03 4.70 4.55 4.46 4.08 3.50 2.98 2.67 2.44 2.39 2.36 2.19 2.01 2.21 2.33 2.52 2.29 1.94 2.01 2.24 2.40 2.37 2.38 2.76 2.86 2.88 2.88 2.74 2.58 2.33 1.97 1.83 1.78 1.70 1.72 1.56 1.81 2.05 2.27 2.46 2.75
4.78 5.48 5.87 6.02 5.50 5.05 4.44 3.97 3.46 3.13 2.90 2.64 2.34 2.09 1.81 1.63 1.58 1.76 1.71 1.64 1.69 1.95 1.99 1.77 2.00 2.28 2.44 2.59 2.43 2.25 1.99 1.75 1.58 1.47 1.43 1.33 1.50 1.59 1.65 1.71 2.00 2.20 2.62
4.94 5.64 6.01 6.17 5.62 4.86 4.49 4.38 4.00 3.43 3.01 2.63 2.24 1.99 1.63 1.46 1.31 1.44 1.45 1.33 1.35 1.45 1.50 1.67 1.95 2.03 1.96 2.04 1.82 1.72 1.62 1.40 1.31 1.26 1.08 1.08 1.23 1.22 1.30 1.53 1.79 1.65 2.12
5.31 5.96 6.05 5.70 4.98 4.43 3.93 3.63 3.30 3.01 2.75 2.31 1.92 1.68 1.51 1.41 1.32 1.41 1.30 1.29 1.24 1.26 1.26 1.38 1.59 1.65 1.45 1.59 1.83 1.69 1.40 1.16 1.12 1.09 1.01 1.07 1.09 1.14 1.31 1.64 1.81 1.79 1.67
4.87 5.23 5.27 4.84 4.07 3.57 3.22 3.12 2.83 2.58 2.23 2.01 1.76 1.66 1.42 1.32 1.25 1.19 1.29 1.12 1.08 1.18 1.15 1.24 1.43 1.45 1.28 1.37 1.62 1.69 1.47 1.38 1.13 0.77 0.88 0.97 0.97 1.17 1.27 1.36 1.61 1.96 1.90
4.36 4.15 3.84 3.60 3.19 3.05 2.94 2.74 2.49 2.39 2.10 1.90 1.64 1.48 1.26 1.11 1.04 0.99 0.98 0.95 0.98 0.91 1.01 1.15 1.26 1.41 1.37 1.18 1.20 1.44 1.37 1.30 1.16 0.88 0.75 0.82 0.99 1.15 1.17 1.31 1.42 1.71 1.95
3.41 3.12 2.90 2.78 2.67 2.59 2.49 2.33 2.01 1.78 1.71 1.57 1.45 1.40 1.29 1.14 1.07 1.01 0.88 0.91 0.91 0.82 1.01 0.88 1.00 1.21 1.30 1.12 1.11 1.10 1.13 1.18 1.19 1.10 0.94 0.82 0.99 1.05 1.11 1.17 1.33 1.61 1.81
2.17 2.32 2.35 2.40 2.50 2.38 2.32 2.24 2.08 1.80 1.74 1.72 1.66 1.67 1.55 1.38 1.18 0.98 0.95 1.00 1.00 0.87 0.89 0.92 1.07 1.11 1.15 1.09 1.08 1.09 1.23 1.23 1.06 1.07 1.09 1.05 1.03 0.87 0.99 1.19 1.31 1.45 1.60
1.48 1.67 1.82 1.88 2.01 2.13 2.11 1.98 1.92 1.83 1.83 1.83 1.72 1.55 1.36 1.26 1.17 1.05 1.05 1.16 1.12 1.05 0.98 0.96 0.99 1.04 1.17 1.25 1.22 1.11 1.14 1.18 1.09 1.08 0.95 0.93 1.01 0.90 1.07 1.32 1.38 1.44 1.46

GEFSSE_prec_meanprecacc_204.txt.gz
Total_Precipitation_Accumulation
0.48 0.57 0.83 0.71 0.58 0.55 0.52 0.54 0.55 0.52 0.51 0.45 0.41 0.37 0.34 0.32 0.35 0.41 0.45 0.53 0.62 0.73 0.86 0.91 0.87 0.87 0.88 0.87 0.92 0.91 0.85 0.92 1.09 1.28 1.33 1.33 1.43 1.56 1.79 1.94 1.79 1.23 1.22
0.22 0.34 0.66 0.60 0.49 0.48 0.46 0.49 0.48 0.47 0.45 0.42 0.39 0.36 0.39 0.39 0.39 0.44 0.52 0.58 0.61 0.76 0.83 0.82 0.81 0.78 0.79 0.77 0.78 0.86 0.87 1.06 1.34 1.70 1.83 1.64 1.77 1.74 1.75 1.72 1.74 1.26 1.29
0.12 0.18 0.38 0.54 0.45 0.42 0.44 0.45 0.47 0.42 0.40 0.41 0.41 0.38 0.42 0.42 0.44 0.47 0.53 0.56 0.65 0.76 0.78 0.72 0.74 0.66 0.67 0.74 0.77 0.85 1.00 1.31 1.67 2.17 2.46 1.84 1.46 1.74 1.66 1.58 1.50 1.18 1.15
0.09 0.10 0.14 0.36 0.41 0.39 0.42 0.43 0.45 0.44 0.40 0.39 0.42 0.39 0.42 0.48 0.52 0.55 0.52 0.55 0.62 0.67 0.64 0.64 0.58 0.62 0.66 0.74 0.86 0.96 1.17 1.43 1.87 2.32 2.38 1.56 1.08 1.30 1.39 1.27 1.23 1.13 1.14
0.11 0.10 0.17 0.32 0.34 0.35 0.40 0.41 0.42 0.41 0.41 0.39 0.42 0.40 0.45 0.50 0.60 0.64 0.60 0.56 0.57 0.59 0.60 0.62 0.59 0.66 0.65 0.74 0.84 0.96 1.21 1.47 1.82 1.97 1.56 1.57 1.55 1.32 1.13 1.06 1.16 1.27 1.12
0.16 0.15 0.22 0.34 0.34 0.36 0.38 0.38 0.38 0.37 0.39 0.41 0.46 0.46 0.49 0.51 0.63 0.63 0.64 0.63 0.60 0.62 0.69 0.73 0.67 0.71 0.71 0.72 0.82 0.95 1.10 1.40 1.54 1.13 0.95 1.26 1.34 1.26 1.17 1.19 1.19 1.16 1.01
0.38 0.36 0.35 0.43 0.41 0.40 0.38 0.39 0.39 0.40 0.40 0.43 0.46 0.46 0.51 0.54 0.63 0.65 0.67 0.68 0.62 0.63 0.70 0.79 0.76 0.76 0.82 0.88 0.94 1.01 1.12 1.33 1.22 0.90 0.94 1.21 1.21 1.14 1.33 1.44 1.32 1.09 0.91
0.77 0.71 0.65 0.65 0.58 0.52 0.48 0.48 0.47 0.47 0.43 0.47 0.50 0.50 0.52 0.57 0.61 0.63 0.67 0.69 0.65 0.64 0.70 0.75 0.78 0.81 0.86 0.90 0.93 0.95 1.09 1.10 0.83 0.82 0.91 1.01 0.89 0.98 1.31 1.52 1.45 1.32 1.09
1.12 1.04 0.85 0.72 0.67 0.62 0.66 0.63 0.56 0.52 0.50 0.51 0.57 0.54 0.52 0.55 0.55 0.56 0.65 0.71 0.65 0.68 0.71 0.75 0.76 0.83 0.83 0.85 0.90 0.93 1.07 1.08 0.87 0.94 0.91 0.96 0.85 1.01 1.21 1.36 1.36 1.32 1.17
1.52 1.34 1.02 0.83 0.87 0.75 0.69 0.71 0.66 0.60 0.58 0.59 0.63 0.61 0.63 0.67 0.66 0.71 0.75 0.84 0.77 0.75 0.75 0.82 0.88 0.86 0.88 0.90 0.92 1.03 1.13 1.04 0.82 0.90 1.09 0.94 0.97 1.19 1.31 1.30 1.36 1.38 1.25
1.93 1.51 1.13 1.05 1.13 1.02 0.84 0.76 0.92 0.84 0.81 0.83 0.90 0.92 1.10 1.37 1.15 1.14 0.96 1.07 1.00 0.99 1.01 1.10 1.15 1.17 1.12 0.99 1.06 1.23 1.16 1.04 1.13 1.22 1.41 1.06 1.08 1.34 1.49 1.53 1.48 1.40 1.32
1.89 1.84 1.51 1.27 1.20 1.23 1.07 1.08 1.47 1.42 1.35 1.49 1.55 1.50 1.83 1.84 1.64 1.19 1.17 1.46 1.43 1.50 1.58 1.80 1.94 1.72 1.41 1.22 1.41 1.83 1.36 1.17 1.29 1.31 1.35 1.20 1.31 1.66 1.80 1.77 1.55 1.34 1.26
1.89 1.79 1.82 1.65 1.49 1.46 1.56 1.47 1.61 1.80 1.85 1.96 1.87 1.90 2.12 1.80 1.54 1.36 1.54 1.88 1.90 1.97 2.04 2.26 2.42 1.89 1.88 2.17 2.24 2.15 1.87 1.68 1.62 1.67 1.65 1.67 1.77 2.03 2.07 2.01 1.83 1.57 1.38
2.15 2.04 2.27 2.19 2.08 2.08 1.94 1.92 1.73 1.67 1.69 1.81 1.89 1.86 2.01 2.00 1.88 1.86 1.99 2.04 2.20 2.36 2.59 2.46 2.62 2.59 2.64 2.49 2.48 2.51 2.38 2.21 2.05 2.17 2.52 2.39 2.28 2.32 2.45 2.26 1.98 1.87 1.74
2.58 2.64 2.80 2.85 2.93 2.74 2.48 2.25 1.85 1.80 1.71 1.67 1.73 1.73 1.94 2.19 2.23 2.35 2.15 2.16 1.96 2.09 2.43 2.70 2.73 2.93 3.07 2.93 2.57 2.35 2.36 2.29 2.07 2.06 2.35 2.55 2.58 2.47 2.55 2.53 2.26 2.12 2.06
3.22 3.39 3.40 3.43 3.45 3.24 2.83 2.57 2.25 1.95 1.96 1.77 1.73 1.81 2.26 2.47 2.43 2.51 2.39 2.34 2.03 2.04 2.35 2.71 2.78 3.07 3.06 3.07 2.58 2.26 2.18 2.18 1.97 1.88 1.98 2.37 2.38 2.25 2.27 2.47 2.52 2.46 2.35
3.92 4.08 4.27 4.18 3.87 3.81 3.44 2.79 2.31 2.04 1.87 1.91 2.01 2.08 2.34 2.50 2.65 2.79 2.71 2.36 2.13 2.22 2.41 2.43 2.57 3.03 2.88 2.84 2.68 2.60 2.53 2.29 2.04 1.93 1.88 2.01 1.93 2.07 2.17 2.27 2.47 2.63 2.66
4.50 4.89 5.08 4.73 4.58 4.51 4.14 3.54 3.01 2.71 2.48 2.43 2.40 2.22 2.05 2.26 2.37 2.57 2.34 1.99 2.06 2.29 2.44 2.42 2.43 2.81 2.92 2.93 2.93 2.78 2.62 2.37 2.00 1.87 1.82 1.75 1.75 1.59 1.84 2.08 2.31 2.53 2.81
4.83 5.53 5.91 6.06 5.54 5.09 4.50 4.02 3.52 3.18 2.95 2.69 2.40 2.14 1.86 1.69 1.62 1.80 1.78 1.71 1.73 1.99 2.05 1.81 2.04 2.33 2.50 2.65 2.48 2.31 2.02 1.78 1.61 1.49 1.46 1.36 1.54 1.63 1.68 1.74 2.03 2.23 2.67
4.97 5.66 6.04 6.21 5.67 4.92 4.57 4.45 4.06 3.50 3.08 2.70 2.31 2.05 1.70 1.53 1.36 1.51 1.52 1.41 1.40 1.52 1.58 1.76 2.04 2.11 2.03 2.10 1.85 1.75 1.66 1.43 1.34 1.29 1.11 1.11 1.27 1.25 1.34 1.57 1.84 1.70 2.16
5.33 5.98 6.08 5.75 5.03 4.47 4.01 3.73 3.42 3.13 2.84 2.38 1.97 1.72 1.58 1.50 1.41 1.52 1.36 1.38 1.32 1.35 1.35 1.47 1.67 1.74 1.54 1.70 1.91 1.74 1.43 1.18 1.15 1.12 1.05 1.11 1.12 1.18 1.35 1.69 1.86 1.86 1.73
4.92 5.26 5.30 4.88 4.11 3.61 3.28 3.18 2.89 2.65 2.30 2.08 1.81 1.72 1.49 1.41 1.36 1.27 1.36 1.19 1.15 1.26 1.23 1.33 1.53 1.53 1.35 1.47 1.72 1.78 1.54 1.43 1.17 0.80 0.92 1.02 1.02 1.22 1.31 1.39 1.66 2.02 1.98
4.40 4.16 3.85 3.63 3.22 3.07 2.98 2.77 2.52 2.43 2.14 1.94 1.70 1.56 1.33 1.19 1.11 1.08 1.08 1.03 1.06 0.98 1.09 1.25 1.37 1.50 1.46 1.28 1.29 1.55 1.49 1.41 1.24 0.92 0.79 0.86 1.02 1.20 1.21 1.35 1.45 1.75 2.00
3.43 3.13 2.91 2.80 2.70 2.62 2.52 2.37 2.05 1.83 1.77 1.63 1.52 1.46 1.35 1.21 1.14 1.09 0.99 1.03 1.02 0.92 1.13 0.99 1.09 1.33 1.42 1.24 1.23 1.21 1.24 1.30 1.30 1.18 1.01 0.88 1.04 1.10 1.15 1.21 1.36 1.64 1.85
2.18 2.32 2.35 2.41 2.51 2.41 2.35 2.29 2.15 1.87 1.80 1.77 1.73 1.74 1.62 1.44 1.26 1.04 1.02 1.10 1.11 0.97 1.00 1.03 1.18 1.22 1.26 1.21 1.20 1.21 1.35 1.35 1.18 1.19 1.19 1.12 1.10 0.92 1.04 1.24 1.37 1.51 1.65
1.48 1.67 1.83 1.89 2.03 2.16 2.16 2.02 1.97 1.89 1.90 1.89 1.80 1.63 1.43 1.32 1.23 1.12 1.12 1.25 1.21 1.14 1.08 1.07 1.10 1.15 1.26 1.34 1.33 1.21 1.25 1.30 1.23 1.26 1.11 1.04 1.10 0.97 1.12 1.36 1.45 1.50 1.52